Wetterdaten: Montag, 06.01.2014
Datum Zeit Temp. Aussen +5cm Feuchte Auss Luftdruck Regen Sonnenschein Regendauer UV Solar Windben
06.01.2014 00:00 4,1 C 2,8 C 87 % 1007,1 hPa 0,0 l/m 0 min 0 min 0,0 UV-I 0 W/m 18,0 km/h (3 Bft)
06.01.2014 00:02 4,2 C 2,8 C 87 % 1007,2 hPa 0,0 l/m 0 min 0 min 0,0 UV-I 0 W/m 20,6 km/h (4 Bft)
06.01.2014 00:04 4,2 C 2,8 C 87 % 1007,1 hPa 0,0 l/m 0 min 0 min 0,0 UV-I 0 W/m 15,4 km/h (3 Bft)
06.01.2014 00:06 4,3 C 2,8 C 87 % 1007,1 hPa 0,0 l/m 0 min 0 min 0,0 UV-I 0 W/m 20,6 km/h (4 Bft)
06.01.2014 00:08 4,4 C 2,8 C 87 % 1007,1 hPa 0,0 l/m 0 min 0 min 0,0 UV-I 0 W/m 20,6 km/h (4 Bft)
06.01.2014 00:10 4,4 C 2,8 C 87 % 1007,1 hPa 0,0 l/m 0 min 0 min 0,0 UV-I 0 W/m 25,7 km/h (4 Bft)
06.01.2014 00:12 4,6 C 2,8 C 87 % 1007,0 hPa 0,0 l/m 0 min 0 min 0,0 UV-I 0 W/m 15,4 km/h (3 Bft)
06.01.2014 00:14 4,6 C 2,8 C 86 % 1007,0 hPa 0,0 l/m 0 min 0 min 0,0 UV-I 0 W/m 15,4 km/h (3 Bft)
06.01.2014 00:16 4,6 C 2,8 C 86 % 1007,0 hPa 0,0 l/m 0 min 0 min 0,0 UV-I 0 W/m 10,3 km/h (2 Bft)
06.01.2014 00:18 4,7 C 2,8 C 86 % 1007,2 hPa 0,0 l/m 0 min 0 min 0,0 UV-I 0 W/m 20,6 km/h (4 Bft)
06.01.2014 00:20 4,7 C 2,8 C 86 % 1007,1 hPa 0,0 l/m 0 min 0 min 0,0 UV-I 0 W/m 20,6 km/h (4 Bft)
06.01.2014 00:22 4,8 C 2,8 C 86 % 1007,1 hPa 0,0 l/m 0 min 0 min 0,0 UV-I 0 W/m 25,7 km/h (4 Bft)
06.01.2014 00:24 4,8 C 3,3 C 86 % 1007,1 hPa 0,0 l/m 0 min 0 min 0,0 UV-I 0 W/m 20,6 km/h (4 Bft)
06.01.2014 00:26 4,9 C 3,3 C 86 % 1007,1 hPa 0,0 l/m 0 min 0 min 0,0 UV-I 0 W/m 20,6 km/h (4 Bft)
06.01.2014 00:28 4,9 C 3,3 C 86 % 1007,0 hPa 0,0 l/m 0 min 0 min 0,0 UV-I 0 W/m 20,6 km/h (4 Bft)
06.01.2014 00:30 4,9 C 3,3 C 85 % 1006,9 hPa 0,0 l/m 0 min 0 min 0,0 UV-I 0 W/m 20,6 km/h (4 Bft)
06.01.2014 00:32 5,0 C 3,3 C 85 % 1006,9 hPa 0,0 l/m 0 min 0 min 0,0 UV-I 0 W/m 15,4 km/h (3 Bft)
06.01.2014 00:34 5,0 C 3,3 C 85 % 1006,8 hPa 0,0 l/m 0 min 0 min 0,0 UV-I 0 W/m 23,2 km/h (4 Bft)
06.01.2014 00:36 5,0 C 3,3 C 85 % 1006,8 hPa 0,0 l/m 0 min 0 min 0,0 UV-I 0 W/m 18,0 km/h (3 Bft)
06.01.2014 00:38 5,0 C 3,3 C 85 % 1006,9 hPa 0,0 l/m 0 min 0 min 0,0 UV-I 0 W/m 23,2 km/h (4 Bft)
06.01.2014 00:40 5,1 C 3,3 C 85 % 1006,8 hPa 0,0 l/m 0 min 0 min 0,0 UV-I 0 W/m 20,6 km/h (4 Bft)
06.01.2014 00:42 5,1 C 3,3 C 85 % 1006,8 hPa 0,0 l/m 0 min 0 min 0,0 UV-I 0 W/m 18,0 km/h (3 Bft)
06.01.2014 00:44 5,1 C 3,3 C 85 % 1006,8 hPa 0,0 l/m 0 min 0 min 0,0 UV-I 0 W/m 15,4 km/h (3 Bft)
06.01.2014 00:46 5,1 C 3,3 C 85 % 1006,7 hPa 0,0 l/m 0 min 0 min 0,0 UV-I 0 W/m 18,0 km/h (3 Bft)
06.01.2014 00:48 5,1 C 3,3 C 85 % 1006,7 hPa 0,0 l/m 0 min 0 min 0,0 UV-I 0 W/m 25,7 km/h (4 Bft)
06.01.2014 00:50 5,1 C 3,3 C 85 % 1006,7 hPa 0,0 l/m 0 min 0 min 0,0 UV-I 0 W/m 20,6 km/h (4 Bft)
06.01.2014 00:52 5,2 C 3,3 C 85 % 1006,6 hPa 0,0 l/m 0 min 0 min 0,0 UV-I 0 W/m 10,3 km/h (2 Bft)
06.01.2014 00:54 5,2 C 3,3 C 85 % 1006,6 hPa 0,0 l/m 0 min 0 min 0,0 UV-I 0 W/m 20,6 km/h (4 Bft)
06.01.2014 00:56 5,2 C 3,3 C 85 % 1006,7 hPa 0,0 l/m 0 min 0 min 0,0 UV-I 0 W/m 7,7 km/h (2 Bft)
06.01.2014 00:58 5,2 C 3,3 C 85 % 1006,7 hPa 0,0 l/m 0 min 0 min 0,0 UV-I 0 W/m 15,4 km/h (3 Bft)
06.01.2014 01:00 5,2 C 3,3 C 85 % 1006,6 hPa 0,0 l/m 0 min 0 min 0,0 UV-I 0 W/m 10,3 km/h (2 Bft)
06.01.2014 01:02 5,1 C 3,3 C 85 % 1006,5 hPa 0,0 l/m 0 min 0 min 0,0 UV-I 0 W/m 15,4 km/h (3 Bft)
06.01.2014 01:04 5,1 C 3,3 C 85 % 1006,5 hPa 0,0 l/m 0 min 0 min 0,0 UV-I 0 W/m 15,4 km/h (3 Bft)
06.01.2014 01:06 5,1 C 3,9 C 85 % 1006,4 hPa 0,0 l/m 0 min 0 min 0,0 UV-I 0 W/m 20,6 km/h (4 Bft)
06.01.2014 01:08 5,0 C 3,9 C 86 % 1006,3 hPa 0,0 l/m 0 min 0 min 0,0 UV-I 0 W/m 20,6 km/h (4 Bft)
06.01.2014 01:10 5,0 C 3,3 C 86 % 1006,3 hPa 0,0 l/m 0 min 0 min 0,0 UV-I 0 W/m 20,6 km/h (4 Bft)
06.01.2014 01:12 5,0 C 3,3 C 86 % 1006,2 hPa 0,0 l/m 0 min 0 min 0,0 UV-I 0 W/m 23,2 km/h (4 Bft)
06.01.2014 01:14 4,9 C 3,3 C 86 % 1006,3 hPa 0,0 l/m 0 min 0 min 0,0 UV-I 0 W/m 33,5 km/h (5 Bft)
06.01.2014 01:16 4,9 C 3,3 C 86 % 1006,2 hPa 0,0 l/m 0 min 0 min 0,0 UV-I 0 W/m 23,2 km/h (4 Bft)
06.01.2014 01:18 4,9 C 3,3 C 86 % 1006,1 hPa 0,0 l/m 0 min 0 min 0,0 UV-I 0 W/m 25,7 km/h (4 Bft)
06.01.2014 01:20 4,9 C 3,3 C 86 % 1006,0 hPa 0,0 l/m 0 min 0 min 0,0 UV-I 0 W/m 28,3 km/h (4 Bft)
06.01.2014 01:22 4,9 C 3,3 C 86 % 1006,0 hPa 0,0 l/m 0 min 0 min 0,0 UV-I 0 W/m 20,6 km/h (4 Bft)
06.01.2014 01:24 4,9 C 3,3 C 86 % 1005,9 hPa 0,0 l/m 0 min 0 min 0,0 UV-I 0 W/m 25,7 km/h (4 Bft)
06.01.2014 01:26 4,9 C 3,3 C 87 % 1006,1 hPa 0,0 l/m 0 min 0 min 0,0 UV-I 0 W/m 18,0 km/h (3 Bft)
06.01.2014 01:28 4,9 C 3,3 C 87 % 1005,9 hPa 0,0 l/m 0 min 0 min 0,0 UV-I 0 W/m 23,2 km/h (4 Bft)
06.01.2014 01:30 4,9 C 3,3 C 87 % 1006,0 hPa 0,0 l/m 0 min 0 min 0,0 UV-I 0 W/m 30,9 km/h (5 Bft)
06.01.2014 01:32 4,9 C 3,3 C 87 % 1005,9 hPa 0,0 l/m 0 min 0 min 0,0 UV-I 0 W/m 23,2 km/h (4 Bft)
06.01.2014 01:34 4,9 C 3,9 C 87 % 1005,9 hPa 0,0 l/m 0 min 0 min 0,0 UV-I 0 W/m 28,3 km/h (4 Bft)
06.01.2014 01:36 4,9 C 3,9 C 87 % 1005,9 hPa 0,0 l/m 0 min 0 min 0,0 UV-I 0 W/m 18,0 km/h (3 Bft)
06.01.2014 01:38 5,0 C 3,9 C 87 % 1005,8 hPa 0,0 l/m 0 min 0 min 0,0 UV-I 0 W/m 25,7 km/h (4 Bft)
06.01.2014 01:40 5,0 C 3,9 C 87 % 1005,8 hPa 0,0 l/m 0 min 0 min 0,0 UV-I 0 W/m 23,2 km/h (4 Bft)
06.01.2014 01:42 5,1 C 3,9 C 87 % 1005,8 hPa 0,0 l/m 0 min 0 min 0,0 UV-I 0 W/m 20,6 km/h (4 Bft)
06.01.2014 01:44 5,1 C 3,9 C 87 % 1005,7 hPa 0,0 l/m 0 min 0 min 0,0 UV-I 0 W/m 18,0 km/h (3 Bft)
06.01.2014 01:46 5,1 C 3,9 C 87 % 1005,6 hPa 0,0 l/m 0 min 0 min 0,0 UV-I 0 W/m 20,6 km/h (4 Bft)
06.01.2014 01:48 5,1 C 3,9 C 87 % 1005,6 hPa 0,0 l/m 0 min 0 min 0,0 UV-I 0 W/m 25,7 km/h (4 Bft)
06.01.2014 01:50 5,2 C 3,9 C 87 % 1005,6 hPa 0,0 l/m 0 min 0 min 0,0 UV-I 0 W/m 18,0 km/h (3 Bft)
06.01.2014 01:52 5,2 C 3,9 C 87 % 1005,5 hPa 0,0 l/m 0 min 0 min 0,0 UV-I 0 W/m 25,7 km/h (4 Bft)
06.01.2014 01:54 5,2 C 3,9 C 87 % 1005,4 hPa 0,0 l/m 0 min 0 min 0,0 UV-I 0 W/m 23,2 km/h (4 Bft)
06.01.2014 01:56 5,2 C 3,9 C 87 % 1005,4 hPa 0,0 l/m 0 min 0 min 0,0 UV-I 0 W/m 23,2 km/h (4 Bft)
06.01.2014 01:58 5,3 C 3,9 C 87 % 1005,3 hPa 0,0 l/m 0 min 0 min 0,0 UV-I 0 W/m 25,7 km/h (4 Bft)
06.01.2014 02:00 5,3 C 3,9 C 87 % 1005,2 hPa 0,0 l/m 0 min 0 min 0,0 UV-I 0 W/m 20,6 km/h (4 Bft)
06.01.2014 02:02 5,3 C 3,9 C 87 % 1005,2 hPa 0,0 l/m 0 min 0 min 0,0 UV-I 0 W/m 33,5 km/h (5 Bft)
06.01.2014 02:04 5,3 C 3,9 C 87 % 1005,1 hPa 0,0 l/m 0 min 0 min 0,0 UV-I 0 W/m 25,7 km/h (4 Bft)
06.01.2014 02:06 5,4 C 4,4 C 87 % 1005,0 hPa 0,0 l/m 0 min 0 min 0,0 UV-I 0 W/m 28,3 km/h (4 Bft)
06.01.2014 02:08 5,4 C 4,4 C 87 % 1005,0 hPa 0,0 l/m 0 min 0 min 0,0 UV-I 0 W/m 33,5 km/h (5 Bft)
06.01.2014 02:10 5,4 C 4,4 C 87 % 1005,0 hPa 0,0 l/m 0 min 0 min 0,0 UV-I 0 W/m 25,7 km/h (4 Bft)
06.01.2014 02:12 5,4 C 4,4 C 87 % 1004,9 hPa 0,0 l/m 0 min 0 min 0,0 UV-I 0 W/m 30,9 km/h (5 Bft)
06.01.2014 02:14 5,5 C 4,4 C 87 % 1004,9 hPa 0,0 l/m 0 min 0 min 0,0 UV-I 0 W/m 28,3 km/h (4 Bft)
06.01.2014 02:16 5,5 C 4,4 C 87 % 1004,9 hPa 0,0 l/m 0 min 0 min 0,0 UV-I 0 W/m 33,5 km/h (5 Bft)
06.01.2014 02:18 5,6 C 4,4 C 87 % 1005,0 hPa 0,0 l/m 0 min 0 min 0,0 UV-I 0 W/m 30,9 km/h (5 Bft)
06.01.2014 02:20 5,6 C 4,4 C 87 % 1004,9 hPa 0,0 l/m 0 min 0 min 0,0 UV-I 0 W/m 25,7 km/h (4 Bft)
06.01.2014 02:22 5,6 C 4,4 C 87 % 1004,8 hPa 0,0 l/m 0 min 0 min 0,0 UV-I 0 W/m 36,0 km/h (5 Bft)
06.01.2014 02:24 5,6 C 4,4 C 87 % 1004,8 hPa 0,0 l/m 0 min 0 min 0,0 UV-I 0 W/m 30,9 km/h (5 Bft)
06.01.2014 02:26 5,7 C 4,4 C 87 % 1004,8 hPa 0,0 l/m 0 min 0 min 0,0 UV-I 0 W/m 20,6 km/h (4 Bft)
06.01.2014 02:28 5,7 C 4,4 C 87 % 1004,8 hPa 0,0 l/m 0 min 0 min 0,0 UV-I 0 W/m 28,3 km/h (4 Bft)
06.01.2014 02:30 5,7 C 4,4 C 87 % 1004,8 hPa 0,0 l/m 0 min 0 min 0,0 UV-I 0 W/m 20,6 km/h (4 Bft)
06.01.2014 02:32 5,7 C 4,4 C 88 % 1004,8 hPa 0,0 l/m 0 min 0 min 0,0 UV-I 0 W/m 36,0 km/h (5 Bft)
06.01.2014 02:34 5,8 C 4,4 C 88 % 1004,9 hPa 0,0 l/m 0 min 0 min 0,0 UV-I 0 W/m 25,7 km/h (4 Bft)
06.01.2014 02:36 5,8 C 4,4 C 88 % 1004,9 hPa 0,0 l/m 0 min 0 min 0,0 UV-I 0 W/m 20,6 km/h (4 Bft)
06.01.2014 02:38 5,8 C 4,4 C 88 % 1004,8 hPa 0,0 l/m 0 min 0 min 0,0 UV-I 0 W/m 33,5 km/h (5 Bft)
06.01.2014 02:40 5,8 C 4,4 C 88 % 1004,8 hPa 0,0 l/m 0 min 0 min 0,0 UV-I 0 W/m 20,6 km/h (4 Bft)
06.01.2014 02:42 5,9 C 4,4 C 88 % 1004,8 hPa 0,0 l/m 0 min 0 min 0,0 UV-I 0 W/m 25,7 km/h (4 Bft)
06.01.2014 02:44 5,9 C 4,4 C 88 % 1004,8 hPa 0,0 l/m 0 min 0 min 0,0 UV-I 0 W/m 18,0 km/h (3 Bft)
06.01.2014 02:46 5,9 C 4,4 C 88 % 1004,8 hPa 0,0 l/m 0 min 0 min 0,0 UV-I 0 W/m 15,4 km/h (3 Bft)
06.01.2014 02:48 5,9 C 4,4 C 88 % 1004,8 hPa 0,0 l/m 0 min 0 min 0,0 UV-I 0 W/m 23,2 km/h (4 Bft)
06.01.2014 02:50 5,9 C 4,4 C 88 % 1004,7 hPa 0,0 l/m 0 min 0 min 0,0 UV-I 0 W/m 18,0 km/h (3 Bft)
06.01.2014 02:52 5,9 C 4,4 C 88 % 1004,8 hPa 0,0 l/m 0 min 0 min 0,0 UV-I 0 W/m 23,2 km/h (4 Bft)
06.01.2014 02:54 5,9 C 4,4 C 88 % 1004,8 hPa 0,0 l/m 0 min 0 min 0,0 UV-I 0 W/m 18,0 km/h (3 Bft)
06.01.2014 02:56 6,0 C 4,4 C 88 % 1004,7 hPa 0,0 l/m 0 min 0 min 0,0 UV-I 0 W/m 20,6 km/h (4 Bft)
06.01.2014 02:58 6,0 C 4,4 C 88 % 1004,8 hPa 0,0 l/m 0 min 0 min 0,0 UV-I 0 W/m 20,6 km/h (4 Bft)
06.01.2014 03:00 6,0 C 5,0 C 88 % 1004,8 hPa 0,0 l/m 0 min 0 min 0,0 UV-I 0 W/m 18,0 km/h (3 Bft)
06.01.2014 03:02 6,1 C 5,0 C 88 % 1004,8 hPa 0,0 l/m 0 min 0 min 0,0 UV-I 0 W/m 23,2 km/h (4 Bft)
06.01.2014 03:04 6,1 C 5,0 C 88 % 1004,8 hPa 0,0 l/m 0 min 0 min 0,0 UV-I 0 W/m 23,2 km/h (4 Bft)
06.01.2014 03:06 6,1 C 5,0 C 88 % 1004,8 hPa 0,0 l/m 0 min 0 min 0,0 UV-I 0 W/m 18,0 km/h (3 Bft)
06.01.2014 03:08 6,1 C 5,0 C 88 % 1004,8 hPa 0,0 l/m 0 min 0 min 0,0 UV-I 0 W/m 18,0 km/h (3 Bft)
06.01.2014 03:10 6,1 C 5,0 C 88 % 1004,8 hPa 0,0 l/m 0 min 0 min 0,0 UV-I 0 W/m 20,6 km/h (4 Bft)
06.01.2014 03:12 6,2 C 5,0 C 88 % 1004,7 hPa 0,0 l/m 0 min 0 min 0,0 UV-I 0 W/m 12,9 km/h (3 Bft)
06.01.2014 03:14 6,2 C 5,0 C 88 % 1004,7 hPa 0,0 l/m 0 min 0 min 0,0 UV-I 0 W/m 18,0 km/h (3 Bft)
06.01.2014 03:16 6,2 C 5,0 C 88 % 1004,7 hPa 0,0 l/m 0 min 0 min 0,0 UV-I 0 W/m 23,2 km/h (4 Bft)
06.01.2014 03:18 6,2 C 5,0 C 88 % 1004,7 hPa 0,0 l/m 0 min 0 min 0,0 UV-I 0 W/m 18,0 km/h (3 Bft)
06.01.2014 03:20 6,2 C 5,0 C 88 % 1004,7 hPa 0,0 l/m 0 min 0 min 0,0 UV-I 0 W/m 10,3 km/h (2 Bft)
06.01.2014 03:22 6,3 C 5,0 C 88 % 1004,7 hPa 0,0 l/m 0 min 0 min 0,0 UV-I 0 W/m 15,4 km/h (3 Bft)
06.01.2014 03:24 6,3 C 5,0 C 88 % 1004,7 hPa 0,0 l/m 0 min 0 min 0,0 UV-I 0 W/m 15,4 km/h (3 Bft)
06.01.2014 03:26 6,3 C 5,0 C 88 % 1004,6 hPa 0,0 l/m 0 min 0 min 0,0 UV-I 0 W/m 12,9 km/h (3 Bft)
06.01.2014 03:28 6,3 C 5,0 C 88 % 1004,5 hPa 0,0 l/m 0 min 0 min 0,0 UV-I 0 W/m 12,9 km/h (3 Bft)
06.01.2014 03:30 6,4 C 5,0 C 89 % 1004,5 hPa 0,0 l/m 0 min 0 min 0,0 UV-I 0 W/m 20,6 km/h (4 Bft)
06.01.2014 03:32 6,4 C 5,0 C 89 % 1004,5 hPa 0,0 l/m 0 min 0 min 0,0 UV-I 0 W/m 18,0 km/h (3 Bft)
06.01.2014 03:34 6,4 C 5,0 C 89 % 1004,4 hPa 0,0 l/m 0 min 0 min 0,0 UV-I 0 W/m 7,7 km/h (2 Bft)
06.01.2014 03:36 6,4 C 5,0 C 89 % 1004,4 hPa 0,0 l/m 0 min 0 min 0,0 UV-I 0 W/m 18,0 km/h (3 Bft)
06.01.2014 03:38 6,4 C 5,0 C 89 % 1004,3 hPa 0,0 l/m 0 min 0 min 0,0 UV-I 0 W/m 18,0 km/h (3 Bft)
06.01.2014 03:40 6,5 C 5,6 C 89 % 1004,3 hPa 0,0 l/m 0 min 0 min 0,0 UV-I 0 W/m 10,3 km/h (2 Bft)
06.01.2014 03:42 6,5 C 5,6 C 89 % 1004,2 hPa 0,0 l/m 0 min 0 min 0,0 UV-I 0 W/m 12,9 km/h (3 Bft)
06.01.2014 03:44 6,6 C 5,6 C 89 % 1004,2 hPa 0,0 l/m 0 min 0 min 0,0 UV-I 0 W/m 10,3 km/h (2 Bft)
06.01.2014 03:46 6,6 C 5,6 C 88 % 1004,2 hPa 0,0 l/m 0 min 0 min 0,0 UV-I 0 W/m 18,0 km/h (3 Bft)
06.01.2014 03:48 6,6 C 5,6 C 88 % 1004,4 hPa 0,0 l/m 0 min 0 min 0,0 UV-I 0 W/m 5,1 km/h (1 Bft)
06.01.2014 03:50 6,7 C 5,6 C 88 % 1004,5 hPa 0,0 l/m 0 min 0 min 0,0 UV-I 0 W/m 7,7 km/h (2 Bft)
06.01.2014 03:52 6,7 C 5,6 C 88 % 1004,5 hPa 0,0 l/m 0 min 0 min 0,0 UV-I 0 W/m 5,1 km/h (1 Bft)
06.01.2014 03:54 6,7 C 5,6 C 88 % 1004,5 hPa 0,0 l/m 0 min 0 min 0,0 UV-I 0 W/m 2,6 km/h (1 Bft)
06.01.2014 03:56 6,7 C 5,6 C 88 % 1004,6 hPa 0,0 l/m 0 min 0 min 0,0 UV-I 0 W/m 2,6 km/h (1 Bft)
06.01.2014 03:58 6,7 C 5,6 C 88 % 1004,5 hPa 0,0 l/m 0 min 0 min 0,0 UV-I 0 W/m 7,7 km/h (2 Bft)
06.01.2014 04:00 6,8 C 5,6 C 89 % 1004,5 hPa 0,0 l/m 0 min 0 min 0,0 UV-I 0 W/m 10,3 km/h (2 Bft)
06.01.2014 04:02 6,8 C 5,6 C 89 % 1004,5 hPa 0,0 l/m 0 min 0 min 0,0 UV-I 0 W/m 18,0 km/h (3 Bft)
06.01.2014 04:04 6,9 C 5,6 C 89 % 1004,4 hPa 0,0 l/m 0 min 0 min 0,0 UV-I 0 W/m 20,6 km/h (4 Bft)
06.01.2014 04:06 6,9 C 5,6 C 89 % 1004,4 hPa 0,0 l/m 0 min 0 min 0,0 UV-I 0 W/m 12,9 km/h (3 Bft)
06.01.2014 04:08 6,9 C 6,1 C 89 % 1004,3 hPa 0,0 l/m 0 min 0 min 0,0 UV-I 0 W/m 15,4 km/h (3 Bft)
06.01.2014 04:10 7,0 C 6,1 C 89 % 1004,3 hPa 0,0 l/m 0 min 0 min 0,0 UV-I 0 W/m 10,3 km/h (2 Bft)
06.01.2014 04:12 7,1 C 6,1 C 89 % 1004,4 hPa 0,0 l/m 0 min 0 min 0,0 UV-I 0 W/m 15,4 km/h (3 Bft)
06.01.2014 04:14 7,1 C 6,1 C 89 % 1004,3 hPa 0,0 l/m 0 min 0 min 0,0 UV-I 0 W/m 20,6 km/h (4 Bft)
06.01.2014 04:16 7,2 C 6,1 C 89 % 1004,4 hPa 0,0 l/m 0 min 0 min 0,0 UV-I 0 W/m 18,0 km/h (3 Bft)
06.01.2014 04:18 7,2 C 6,1 C 89 % 1004,3 hPa 0,0 l/m 0 min 0 min 0,0 UV-I 0 W/m 10,3 km/h (2 Bft)
06.01.2014 04:20 7,3 C 6,1 C 89 % 1004,3 hPa 0,0 l/m 0 min 0 min 0,0 UV-I 0 W/m 10,3 km/h (2 Bft)
06.01.2014 04:22 7,3 C 6,1 C 89 % 1004,3 hPa 0,0 l/m 0 min 0 min 0,0 UV-I 0 W/m 10,3 km/h (2 Bft)
06.01.2014 04:24 7,4 C 6,1 C 88 % 1004,3 hPa 0,0 l/m 0 min 0 min 0,0 UV-I 0 W/m 18,0 km/h (3 Bft)
06.01.2014 04:26 7,4 C 6,1 C 88 % 1004,2 hPa 0,0 l/m 0 min 0 min 0,0 UV-I 0 W/m 20,6 km/h (4 Bft)
06.01.2014 04:28 7,4 C 6,1 C 88 % 1004,1 hPa 0,0 l/m 0 min 0 min 0,0 UV-I 0 W/m 25,7 km/h (4 Bft)
06.01.2014 04:30 7,5 C 6,1 C 88 % 1004,1 hPa 0,0 l/m 0 min 0 min 0,0 UV-I 0 W/m 18,0 km/h (3 Bft)
06.01.2014 04:32 7,6 C 6,1 C 88 % 1004,2 hPa 0,0 l/m 0 min 0 min 0,0 UV-I 0 W/m 23,2 km/h (4 Bft)
06.01.2014 04:34 7,6 C 6,1 C 88 % 1004,2 hPa 0,0 l/m 0 min 0 min 0,0 UV-I 0 W/m 15,4 km/h (3 Bft)
06.01.2014 04:36 7,7 C 6,1 C 88 % 1004,2 hPa 0,0 l/m 0 min 0 min 0,0 UV-I 0 W/m 18,0 km/h (3 Bft)
06.01.2014 04:38 7,7 C 6,7 C 88 % 1004,3 hPa 0,0 l/m 0 min 0 min 0,0 UV-I 0 W/m 10,3 km/h (2 Bft)
06.01.2014 04:40 7,7 C 6,7 C 88 % 1004,2 hPa 0,0 l/m 0 min 0 min 0,0 UV-I 0 W/m 15,4 km/h (3 Bft)
06.01.2014 04:42 7,7 C 6,7 C 88 % 1004,2 hPa 0,0 l/m 0 min 0 min 0,0 UV-I 0 W/m 23,2 km/h (4 Bft)
06.01.2014 04:44 7,8 C 6,7 C 88 % 1004,0 hPa 0,0 l/m 0 min 0 min 0,0 UV-I 0 W/m 15,4 km/h (3 Bft)
06.01.2014 04:46 7,8 C 6,7 C 88 % 1004,0 hPa 0,0 l/m 0 min 0 min 0,0 UV-I 0 W/m 20,6 km/h (4 Bft)
06.01.2014 04:48 7,8 C 6,7 C 88 % 1004,1 hPa 0,0 l/m 0 min 0 min 0,0 UV-I 0 W/m 18,0 km/h (3 Bft)
06.01.2014 04:50 7,9 C 6,7 C 88 % 1004,1 hPa 0,0 l/m 0 min 0 min 0,0 UV-I 0 W/m 20,6 km/h (4 Bft)
06.01.2014 04:52 7,9 C 6,7 C 88 % 1004,0 hPa 0,0 l/m 0 min 0 min 0,0 UV-I 0 W/m 20,6 km/h (4 Bft)
06.01.2014 04:54 7,9 C 6,7 C 88 % 1004,0 hPa 0,0 l/m 0 min 0 min 0,0 UV-I 0 W/m 12,9 km/h (3 Bft)
06.01.2014 04:56 7,9 C 6,7 C 88 % 1004,1 hPa 0,0 l/m 0 min 0 min 0,0 UV-I 0 W/m 28,3 km/h (4 Bft)
06.01.2014 04:58 8,0 C 6,7 C 88 % 1004,1 hPa 0,0 l/m 0 min 0 min 0,0 UV-I 0 W/m 18,0 km/h (3 Bft)
06.01.2014 05:00 8,0 C 6,7 C 88 % 1004,2 hPa 0,0 l/m 0 min 0 min 0,0 UV-I 0 W/m 15,4 km/h (3 Bft)
06.01.2014 05:02 8,0 C 6,7 C 88 % 1004,2 hPa 0,0 l/m 0 min 0 min 0,0 UV-I 0 W/m 10,3 km/h (2 Bft)
06.01.2014 05:04 8,1 C 6,7 C 88 % 1004,3 hPa 0,0 l/m 0 min 0 min 0,0 UV-I 0 W/m 7,7 km/h (2 Bft)
06.01.2014 05:06 8,1 C 6,7 C 88 % 1004,3 hPa 0,0 l/m 0 min 0 min 0,0 UV-I 0 W/m 18,0 km/h (3 Bft)
06.01.2014 05:08 8,1 C 6,7 C 88 % 1004,1 hPa 0,0 l/m 0 min 0 min 0,0 UV-I 0 W/m 28,3 km/h (4 Bft)
06.01.2014 05:10 8,1 C 6,7 C 88 % 1004,0 hPa 0,0 l/m 0 min 0 min 0,0 UV-I 0 W/m 18,0 km/h (3 Bft)
06.01.2014 05:12 8,2 C 6,7 C 88 % 1004,1 hPa 0,0 l/m 0 min 0 min 0,0 UV-I 0 W/m 20,6 km/h (4 Bft)
06.01.2014 05:14 8,2 C 6,7 C 88 % 1004,1 hPa 0,0 l/m 0 min 0 min 0,0 UV-I 0 W/m 15,4 km/h (3 Bft)
06.01.2014 05:16 8,2 C 6,7 C 88 % 1004,2 hPa 0,0 l/m 0 min 0 min 0,0 UV-I 0 W/m 23,2 km/h (4 Bft)
06.01.2014 05:18 8,2 C 6,7 C 88 % 1004,3 hPa 0,0 l/m 0 min 0 min 0,0 UV-I 0 W/m 18,0 km/h (3 Bft)
06.01.2014 05:20 8,2 C 6,7 C 88 % 1004,2 hPa 0,0 l/m 0 min 0 min 0,0 UV-I 0 W/m 15,4 km/h (3 Bft)
06.01.2014 05:22 8,2 C 6,7 C 88 % 1004,1 hPa 0,0 l/m 0 min 0 min 0,0 UV-I 0 W/m 25,7 km/h (4 Bft)
06.01.2014 05:24 8,3 C 6,7 C 88 % 1004,1 hPa 0,0 l/m 0 min 0 min 0,0 UV-I 0 W/m 18,0 km/h (3 Bft)
06.01.2014 05:26 8,3 C 6,7 C 88 % 1004,1 hPa 0,0 l/m 0 min 0 min 0,0 UV-I 0 W/m 15,4 km/h (3 Bft)
06.01.2014 05:28 8,3 C 6,7 C 88 % 1004,1 hPa 0,0 l/m 0 min 0 min 0,0 UV-I 0 W/m 18,0 km/h (3 Bft)
06.01.2014 05:30 8,3 C 6,7 C 88 % 1004,1 hPa 0,0 l/m 0 min 0 min 0,0 UV-I 0 W/m 12,9 km/h (3 Bft)
06.01.2014 05:32 8,3 C 6,7 C 88 % 1004,1 hPa 0,0 l/m 0 min 0 min 0,0 UV-I 0 W/m 18,0 km/h (3 Bft)
06.01.2014 05:34 8,3 C 6,7 C 88 % 1004,0 hPa 0,0 l/m 0 min 0 min 0,0 UV-I 0 W/m 20,6 km/h (4 Bft)
06.01.2014 05:36 8,3 C 6,7 C 88 % 1004,0 hPa 0,0 l/m 0 min 0 min 0,0 UV-I 0 W/m 15,4 km/h (3 Bft)
06.01.2014 05:38 8,3 C 6,7 C 88 % 1004,1 hPa 0,0 l/m 0 min 0 min 0,0 UV-I 0 W/m 20,6 km/h (4 Bft)
06.01.2014 05:40 8,3 C 6,7 C 88 % 1004,1 hPa 0,0 l/m 0 min 0 min 0,0 UV-I 0 W/m 15,4 km/h (3 Bft)
06.01.2014 05:42 8,4 C 6,7 C 88 % 1004,2 hPa 0,0 l/m 0 min 0 min 0,0 UV-I 0 W/m 18,0 km/h (3 Bft)
06.01.2014 05:44 8,4 C 6,7 C 88 % 1004,1 hPa 0,0 l/m 0 min 0 min 0,0 UV-I 0 W/m 18,0 km/h (3 Bft)
06.01.2014 05:46 8,4 C 6,7 C 88 % 1004,1 hPa 0,0 l/m 0 min 0 min 0,0 UV-I 0 W/m 18,0 km/h (3 Bft)
06.01.2014 05:48 8,4 C 6,7 C 88 % 1004,2 hPa 0,0 l/m 0 min 0 min 0,0 UV-I 0 W/m 18,0 km/h (3 Bft)
06.01.2014 05:50 8,4 C 7,2 C 88 % 1004,2 hPa 0,0 l/m 0 min 0 min 0,0 UV-I 0 W/m 18,0 km/h (3 Bft)
06.01.2014 05:52 8,4 C 7,2 C 88 % 1004,2 hPa 0,0 l/m 0 min 0 min 0,0 UV-I 0 W/m 15,4 km/h (3 Bft)
06.01.2014 05:54 8,4 C 7,2 C 88 % 1004,1 hPa 0,0 l/m 0 min 0 min 0,0 UV-I 0 W/m 12,9 km/h (3 Bft)
06.01.2014 05:56 8,4 C 7,2 C 88 % 1004,1 hPa 0,0 l/m 0 min 0 min 0,0 UV-I 0 W/m 15,4 km/h (3 Bft)
06.01.2014 05:58 8,5 C 6,7 C 88 % 1004,1 hPa 0,0 l/m 0 min 0 min 0,0 UV-I 0 W/m 15,4 km/h (3 Bft)
06.01.2014 06:00 8,5 C 7,2 C 88 % 1004,1 hPa 0,0 l/m 0 min 0 min 0,0 UV-I 0 W/m 18,0 km/h (3 Bft)
06.01.2014 06:02 8,5 C 7,2 C 88 % 1004,1 hPa 0,0 l/m 0 min 0 min 0,0 UV-I 0 W/m 20,6 km/h (4 Bft)
06.01.2014 06:04 8,5 C 7,2 C 88 % 1004,0 hPa 0,0 l/m 0 min 0 min 0,0 UV-I 0 W/m 12,9 km/h (3 Bft)
06.01.2014 06:06 8,5 C 7,2 C 88 % 1004,1 hPa 0,0 l/m 0 min 0 min 0,0 UV-I 0 W/m 20,6 km/h (4 Bft)
06.01.2014 06:08 8,6 C 7,2 C 88 % 1004,1 hPa 0,0 l/m 0 min 0 min 0,0 UV-I 0 W/m 18,0 km/h (3 Bft)
06.01.2014 06:10 8,6 C 7,2 C 88 % 1004,1 hPa 0,0 l/m 0 min 0 min 0,0 UV-I 0 W/m 18,0 km/h (3 Bft)
06.01.2014 06:12 8,6 C 7,2 C 88 % 1004,2 hPa 0,0 l/m 0 min 0 min 0,0 UV-I 0 W/m 15,4 km/h (3 Bft)
06.01.2014 06:14 8,6 C 7,2 C 88 % 1004,2 hPa 0,0 l/m 0 min 0 min 0,0 UV-I 0 W/m 15,4 km/h (3 Bft)
06.01.2014 06:16 8,6 C 7,2 C 88 % 1004,2 hPa 0,0 l/m 0 min 0 min 0,0 UV-I 0 W/m 15,4 km/h (3 Bft)
06.01.2014 06:18 8,6 C 7,2 C 88 % 1004,3 hPa 0,0 l/m 0 min 0 min 0,0 UV-I 0 W/m 7,7 km/h (2 Bft)
06.01.2014 06:20 8,6 C 7,2 C 88 % 1004,3 hPa 0,0 l/m 0 min 0 min 0,0 UV-I 0 W/m 12,9 km/h (3 Bft)
06.01.2014 06:22 8,7 C 7,2 C 88 % 1004,3 hPa 0,0 l/m 0 min 0 min 0,0 UV-I 0 W/m 15,4 km/h (3 Bft)
06.01.2014 06:24 8,7 C 7,2 C 88 % 1004,3 hPa 0,0 l/m 0 min 0 min 0,0 UV-I 0 W/m 10,3 km/h (2 Bft)
06.01.2014 06:26 8,7 C 7,2 C 88 % 1004,2 hPa 0,0 l/m 0 min 0 min 0,0 UV-I 0 W/m 12,9 km/h (3 Bft)
06.01.2014 06:28 8,7 C 7,2 C 88 % 1004,2 hPa 0,0 l/m 0 min 0 min 0,0 UV-I 0 W/m 15,4 km/h (3 Bft)
06.01.2014 06:30 8,7 C 7,2 C 88 % 1004,2 hPa 0,0 l/m 0 min 0 min 0,0 UV-I 0 W/m 12,9 km/h (3 Bft)
06.01.2014 06:32 8,7 C 7,2 C 88 % 1004,2 hPa 0,0 l/m 0 min 0 min 0,0 UV-I 0 W/m 15,4 km/h (3 Bft)
06.01.2014 06:34 8,8 C 7,8 C 88 % 1004,3 hPa 0,0 l/m 0 min 0 min 0,0 UV-I 0 W/m 5,1 km/h (1 Bft)
06.01.2014 06:36 8,8 C 7,8 C 89 % 1004,4 hPa 0,0 l/m 0 min 0 min 0,0 UV-I 0 W/m 12,9 km/h (3 Bft)
06.01.2014 06:38 8,9 C 7,8 C 89 % 1004,4 hPa 0,0 l/m 0 min 0 min 0,0 UV-I 0 W/m 12,9 km/h (3 Bft)
06.01.2014 06:40 8,9 C 7,8 C 89 % 1004,4 hPa 0,0 l/m 0 min 0 min 0,0 UV-I 0 W/m 18,0 km/h (3 Bft)
06.01.2014 06:42 9,0 C 7,8 C 89 % 1004,4 hPa 0,0 l/m 0 min 0 min 0,0 UV-I 0 W/m 23,2 km/h (4 Bft)
06.01.2014 06:44 9,1 C 7,8 C 89 % 1004,4 hPa 0,0 l/m 0 min 0 min 0,0 UV-I 0 W/m 0,0 km/h (0 Bft)
06.01.2014 06:46 9,1 C 7,8 C 89 % 1004,4 hPa 0,0 l/m 0 min 0 min 0,0 UV-I 0 W/m 10,3 km/h (2 Bft)
06.01.2014 06:48 9,2 C 7,8 C 89 % 1004,4 hPa 0,0 l/m 0 min 0 min 0,0 UV-I 0 W/m 7,7 km/h (2 Bft)
06.01.2014 06:50 9,2 C 8,3 C 89 % 1004,4 hPa 0,0 l/m 0 min 0 min 0,0 UV-I 0 W/m 10,3 km/h (2 Bft)
06.01.2014 06:52 9,3 C 8,3 C 89 % 1004,3 hPa 0,0 l/m 0 min 0 min 0,0 UV-I 0 W/m 20,6 km/h (4 Bft)
06.01.2014 06:54 9,4 C 8,3 C 89 % 1004,3 hPa 0,0 l/m 0 min 0 min 0,0 UV-I 0 W/m 10,3 km/h (2 Bft)
06.01.2014 06:56 9,4 C 8,3 C 88 % 1004,4 hPa 0,0 l/m 0 min 0 min 0,0 UV-I 0 W/m 18,0 km/h (3 Bft)
06.01.2014 06:58 9,5 C 8,3 C 88 % 1004,4 hPa 0,0 l/m 0 min 0 min 0,0 UV-I 0 W/m 18,0 km/h (3 Bft)
06.01.2014 07:00 9,6 C 8,3 C 88 % 1004,3 hPa 0,0 l/m 0 min 0 min 0,0 UV-I 0 W/m 18,0 km/h (3 Bft)
06.01.2014 07:02 9,6 C 8,3 C 88 % 1004,3 hPa 0,0 l/m 0 min 0 min 0,0 UV-I 0 W/m 18,0 km/h (3 Bft)
06.01.2014 07:04 9,7 C 8,3 C 88 % 1004,3 hPa 0,0 l/m 0 min 0 min 0,0 UV-I 0 W/m 25,7 km/h (4 Bft)
06.01.2014 07:06 9,7 C 8,3 C 88 % 1004,2 hPa 0,0 l/m 0 min 0 min 0,0 UV-I 0 W/m 25,7 km/h (4 Bft)
06.01.2014 07:08 9,8 C 8,3 C 88 % 1004,3 hPa 0,0 l/m 0 min 0 min 0,0 UV-I 0 W/m 36,0 km/h (5 Bft)
06.01.2014 07:10 9,9 C 8,3 C 88 % 1004,2 hPa 0,0 l/m 0 min 0 min 0,0 UV-I 0 W/m 23,2 km/h (4 Bft)
06.01.2014 07:12 9,9 C 8,9 C 88 % 1004,1 hPa 0,0 l/m 0 min 0 min 0,0 UV-I 0 W/m 20,6 km/h (4 Bft)
06.01.2014 07:14 10,0 C 8,9 C 87 % 1004,2 hPa 0,0 l/m 0 min 0 min 0,0 UV-I 0 W/m 15,4 km/h (3 Bft)
06.01.2014 07:16 10,0 C 8,9 C 87 % 1004,1 hPa 0,0 l/m 0 min 0 min 0,0 UV-I 0 W/m 15,4 km/h (3 Bft)
06.01.2014 07:18 10,1 C 8,9 C 87 % 1004,1 hPa 0,0 l/m 0 min 0 min 0,0 UV-I 0 W/m 33,5 km/h (5 Bft)
06.01.2014 07:20 10,1 C 8,9 C 87 % 1004,2 hPa 0,0 l/m 0 min 0 min 0,0 UV-I 0 W/m 28,3 km/h (4 Bft)
06.01.2014 07:22 10,2 C 8,9 C 87 % 1004,1 hPa 0,0 l/m 0 min 0 min 0,0 UV-I 0 W/m 25,7 km/h (4 Bft)
06.01.2014 07:24 10,2 C 8,9 C 87 % 1004,1 hPa 0,0 l/m 0 min 0 min 0,0 UV-I 0 W/m 18,0 km/h (3 Bft)
06.01.2014 07:26 10,2 C 8,9 C 86 % 1004,1 hPa 0,0 l/m 0 min 2 min 0,0 UV-I 0 W/m 25,7 km/h (4 Bft)
06.01.2014 07:28 10,3 C 8,9 C 86 % 1004,1 hPa 0,0 l/m 0 min 0 min 0,0 UV-I 0 W/m 7,7 km/h (2 Bft)
06.01.2014 07:30 10,3 C 8,3 C 86 % 1004,1 hPa 0,2 l/m 0 min 2 min 0,0 UV-I 0 W/m 25,7 km/h (4 Bft)
06.01.2014 07:32 10,4 C 7,8 C 87 % 1004,1 hPa 0,0 l/m 0 min 2 min 0,0 UV-I 0 W/m 12,9 km/h (3 Bft)
06.01.2014 07:34 10,4 C 7,8 C 87 % 1004,1 hPa 0,0 l/m 0 min 2 min 0,0 UV-I 0 W/m 15,4 km/h (3 Bft)
06.01.2014 07:36 10,4 C 7,8 C 87 % 1004,2 hPa 0,0 l/m 0 min 2 min 0,0 UV-I 0 W/m 15,4 km/h (3 Bft)
06.01.2014 07:38 10,4 C 7,8 C 87 % 1004,2 hPa 0,0 l/m 0 min 2 min 0,0 UV-I 0 W/m 15,4 km/h (3 Bft)
06.01.2014 07:40 10,3 C 7,8 C 87 % 1004,2 hPa 0,0 l/m 0 min 2 min 0,0 UV-I 0 W/m 18,0 km/h (3 Bft)
06.01.2014 07:42 10,3 C 7,8 C 88 % 1004,1 hPa 0,0 l/m 0 min 2 min 0,0 UV-I 0 W/m 7,7 km/h (2 Bft)
06.01.2014 07:44 10,3 C 7,8 C 88 % 1004,3 hPa 0,0 l/m 0 min 2 min 0,0 UV-I 0 W/m 7,7 km/h (2 Bft)
06.01.2014 07:46 10,3 C 7,8 C 88 % 1004,2 hPa 0,0 l/m 0 min 2 min 0,0 UV-I 0 W/m 12,9 km/h (3 Bft)
06.01.2014 07:48 10,3 C 7,8 C 88 % 1004,2 hPa 0,0 l/m 0 min 2 min 0,0 UV-I 0 W/m 15,4 km/h (3 Bft)
06.01.2014 07:50 10,2 C 7,8 C 89 % 1004,1 hPa 0,0 l/m 0 min 2 min 0,0 UV-I 0 W/m 10,3 km/h (2 Bft)
06.01.2014 07:52 10,2 C 7,8 C 89 % 1004,2 hPa 0,0 l/m 0 min 2 min 0,0 UV-I 0 W/m 20,6 km/h (4 Bft)
06.01.2014 07:54 10,2 C 7,8 C 89 % 1004,1 hPa 0,0 l/m 0 min 0 min 0,0 UV-I 0 W/m 20,6 km/h (4 Bft)
06.01.2014 07:56 10,1 C 7,8 C 89 % 1004,1 hPa 0,0 l/m 0 min 2 min 0,0 UV-I 0 W/m 12,9 km/h (3 Bft)
06.01.2014 07:58 10,1 C 7,2 C 89 % 1004,0 hPa 0,0 l/m 0 min 0 min 0,0 UV-I 0 W/m 7,7 km/h (2 Bft)
06.01.2014 08:00 10,1 C 7,8 C 90 % 1003,9 hPa 0,0 l/m 0 min 0 min 0,0 UV-I 0 W/m 7,7 km/h (2 Bft)
06.01.2014 08:02 10,1 C 7,8 C 90 % 1004,0 hPa 0,0 l/m 0 min 0 min 0,0 UV-I 0 W/m 12,9 km/h (3 Bft)
06.01.2014 08:04 10,0 C 7,8 C 90 % 1004,0 hPa 0,0 l/m 0 min 2 min 0,0 UV-I 0 W/m 0,0 km/h (0 Bft)
06.01.2014 08:06 10,0 C 7,8 C 90 % 1004,0 hPa 0,0 l/m 0 min 2 min 0,0 UV-I 0 W/m 15,4 km/h (3 Bft)
06.01.2014 08:08 10,0 C 7,8 C 90 % 1004,0 hPa 0,0 l/m 0 min 0 min 0,0 UV-I 0 W/m 5,1 km/h (1 Bft)
06.01.2014 08:10 9,9 C 7,8 C 91 % 1004,0 hPa 0,0 l/m 0 min 0 min 0,0 UV-I 0 W/m 12,9 km/h (3 Bft)
06.01.2014 08:12 9,9 C 7,8 C 91 % 1004,0 hPa 0,0 l/m 0 min 0 min 0,0 UV-I 0 W/m 10,3 km/h (2 Bft)
06.01.2014 08:14 9,9 C 7,8 C 91 % 1004,1 hPa 0,0 l/m 0 min 0 min 0,0 UV-I 0 W/m 18,0 km/h (3 Bft)
06.01.2014 08:16 9,9 C 7,8 C 91 % 1004,1 hPa 0,0 l/m 0 min 0 min 0,0 UV-I 0 W/m 15,4 km/h (3 Bft)
06.01.2014 08:18 9,9 C 7,8 C 91 % 1004,1 hPa 0,0 l/m 0 min 2 min 0,0 UV-I 0 W/m 12,9 km/h (3 Bft)
06.01.2014 08:20 9,9 C 7,8 C 91 % 1004,1 hPa 0,0 l/m 0 min 0 min 0,0 UV-I 0 W/m 20,6 km/h (4 Bft)
06.01.2014 08:22 9,9 C 7,8 C 91 % 1004,2 hPa 0,0 l/m 0 min 0 min 0,0 UV-I 0 W/m 7,7 km/h (2 Bft)
06.01.2014 08:24 9,9 C 7,8 C 91 % 1004,3 hPa 0,0 l/m 0 min 0 min 0,0 UV-I 0 W/m 20,6 km/h (4 Bft)
06.01.2014 08:26 9,9 C 7,8 C 91 % 1004,3 hPa 0,0 l/m 0 min 0 min 0,0 UV-I 0 W/m 20,6 km/h (4 Bft)
06.01.2014 08:28 9,9 C 7,8 C 91 % 1004,3 hPa 0,0 l/m 0 min 0 min 0,0 UV-I 0 W/m 23,2 km/h (4 Bft)
06.01.2014 08:30 9,9 C 7,8 C 91 % 1004,3 hPa 0,0 l/m 0 min 0 min 0,0 UV-I 0 W/m 20,6 km/h (4 Bft)
06.01.2014 08:32 9,9 C 7,8 C 91 % 1004,4 hPa 0,0 l/m 0 min 0 min 0,0 UV-I 0 W/m 5,1 km/h (1 Bft)
06.01.2014 08:34 9,9 C 7,8 C 91 % 1004,4 hPa 0,0 l/m 0 min 2 min 0,0 UV-I 0 W/m 25,7 km/h (4 Bft)
06.01.2014 08:36 10,0 C 7,8 C 91 % 1004,5 hPa 0,0 l/m 0 min 2 min 0,0 UV-I 0 W/m 15,4 km/h (3 Bft)
06.01.2014 08:38 10,0 C 7,8 C 91 % 1004,5 hPa 0,0 l/m 0 min 0 min 0,0 UV-I 0 W/m 20,6 km/h (4 Bft)
06.01.2014 08:40 10,1 C 7,8 C 91 % 1004,5 hPa 0,0 l/m 0 min 0 min 0,0 UV-I 0 W/m 15,4 km/h (3 Bft)
06.01.2014 08:42 10,0 C 7,8 C 91 % 1004,7 hPa 0,0 l/m 0 min 2 min 0,0 UV-I 0 W/m 20,6 km/h (4 Bft)
06.01.2014 08:44 10,1 C 7,8 C 91 % 1004,7 hPa 0,0 l/m 0 min 2 min 0,0 UV-I 0 W/m 20,6 km/h (4 Bft)
06.01.2014 08:46 10,1 C 7,8 C 91 % 1004,8 hPa 0,0 l/m 0 min 2 min 0,0 UV-I 0 W/m 20,6 km/h (4 Bft)
06.01.2014 08:48 10,2 C 7,8 C 91 % 1004,9 hPa 0,0 l/m 0 min 2 min 0,0 UV-I 0 W/m 10,3 km/h (2 Bft)
06.01.2014 08:50 10,2 C 7,8 C 91 % 1004,9 hPa 0,0 l/m 0 min 2 min 0,0 UV-I 0 W/m 12,9 km/h (3 Bft)
06.01.2014 08:52 10,2 C 7,8 C 91 % 1004,9 hPa 0,2 l/m 0 min 2 min 0,0 UV-I 0 W/m 12,9 km/h (3 Bft)
06.01.2014 08:54 10,2 C 7,8 C 91 % 1005,0 hPa 0,0 l/m 0 min 0 min 0,0 UV-I 0 W/m 18,0 km/h (3 Bft)
06.01.2014 08:56 10,2 C 7,8 C 91 % 1005,0 hPa 0,0 l/m 0 min 0 min 0,0 UV-I 0 W/m 15,4 km/h (3 Bft)
06.01.2014 08:58 10,2 C 7,8 C 91 % 1005,1 hPa 0,0 l/m 0 min 2 min 0,0 UV-I 0 W/m 15,4 km/h (3 Bft)
06.01.2014 09:00 10,2 C 7,8 C 92 % 1005,0 hPa 0,0 l/m 0 min 2 min 0,0 UV-I 0 W/m 18,0 km/h (3 Bft)
06.01.2014 09:02 10,2 C 7,8 C 92 % 1005,0 hPa 0,0 l/m 0 min 2 min 0,0 UV-I 0 W/m 18,0 km/h (3 Bft)
06.01.2014 09:04 10,2 C 7,8 C 92 % 1005,1 hPa 0,0 l/m 0 min 0 min 0,0 UV-I 0 W/m 15,4 km/h (3 Bft)
06.01.2014 09:06 10,3 C 7,8 C 92 % 1005,1 hPa 0,0 l/m 0 min 0 min 0,0 UV-I 0 W/m 10,3 km/h (2 Bft)
06.01.2014 09:08 10,3 C 7,8 C 92 % 1005,2 hPa 0,0 l/m 0 min 0 min 0,0 UV-I 0 W/m 7,7 km/h (2 Bft)
06.01.2014 09:10 10,3 C 7,8 C 92 % 1005,1 hPa 0,0 l/m 0 min 0 min 0,0 UV-I 0 W/m 10,3 km/h (2 Bft)
06.01.2014 09:12 10,3 C 7,8 C 92 % 1005,2 hPa 0,0 l/m 0 min 0 min 0,0 UV-I 5 W/m 10,3 km/h (2 Bft)
06.01.2014 09:14 10,3 C 7,8 C 92 % 1005,2 hPa 0,0 l/m 0 min 0 min 0,0 UV-I 5 W/m 10,3 km/h (2 Bft)
06.01.2014 09:16 10,3 C 7,8 C 92 % 1005,3 hPa 0,0 l/m 0 min 0 min 0,0 UV-I 5 W/m 5,1 km/h (1 Bft)
06.01.2014 09:18 10,3 C 8,3 C 92 % 1005,2 hPa 0,0 l/m 0 min 0 min 0,0 UV-I 7 W/m 5,1 km/h (1 Bft)
06.01.2014 09:20 10,3 C 7,8 C 92 % 1005,2 hPa 0,0 l/m 0 min 0 min 0,0 UV-I 7 W/m 10,3 km/h (2 Bft)
06.01.2014 09:22 10,3 C 8,3 C 92 % 1005,2 hPa 0,0 l/m 0 min 0 min 0,0 UV-I 7 W/m 10,3 km/h (2 Bft)
06.01.2014 09:24 10,3 C 8,3 C 92 % 1005,3 hPa 0,0 l/m 0 min 0 min 0,0 UV-I 5 W/m 10,3 km/h (2 Bft)
06.01.2014 09:26 10,3 C 8,3 C 92 % 1005,3 hPa 0,0 l/m 0 min 0 min 0,0 UV-I 7 W/m 10,3 km/h (2 Bft)
06.01.2014 09:28 10,3 C 8,3 C 92 % 1005,3 hPa 0,0 l/m 0 min 0 min 0,0 UV-I 5 W/m 12,9 km/h (3 Bft)
06.01.2014 09:30 10,3 C 8,3 C 92 % 1005,3 hPa 0,0 l/m 0 min 0 min 0,0 UV-I 5 W/m 18,0 km/h (3 Bft)
06.01.2014 09:32 10,3 C 8,3 C 92 % 1005,3 hPa 0,0 l/m 0 min 0 min 0,0 UV-I 5 W/m 15,4 km/h (3 Bft)
06.01.2014 09:34 10,4 C 8,3 C 92 % 1005,4 hPa 0,0 l/m 0 min 0 min 0,0 UV-I 5 W/m 15,4 km/h (3 Bft)
06.01.2014 09:36 10,4 C 8,3 C 92 % 1005,4 hPa 0,0 l/m 0 min 0 min 0,0 UV-I 7 W/m 18,0 km/h (3 Bft)
06.01.2014 09:38 10,4 C 8,3 C 92 % 1005,4 hPa 0,0 l/m 0 min 0 min 0,0 UV-I 7 W/m 12,9 km/h (3 Bft)
06.01.2014 09:40 10,4 C 8,3 C 92 % 1005,4 hPa 0,0 l/m 0 min 0 min 0,0 UV-I 7 W/m 12,9 km/h (3 Bft)
06.01.2014 09:42 10,5 C 8,3 C 92 % 1005,4 hPa 0,0 l/m 0 min 0 min 0,0 UV-I 5 W/m 7,7 km/h (2 Bft)
06.01.2014 09:44 10,5 C 8,3 C 92 % 1005,4 hPa 0,0 l/m 0 min 0 min 0,0 UV-I 7 W/m 10,3 km/h (2 Bft)
06.01.2014 09:46 10,6 C 8,3 C 95 % 1005,4 hPa 0,0 l/m 0 min 0 min 0,0 UV-I 7 W/m 15,4 km/h (3 Bft)
06.01.2014 09:48 10,6 C 8,9 C 92 % 1005,4 hPa 0,0 l/m 0 min 0 min 0,0 UV-I 12 W/m 15,4 km/h (3 Bft)
06.01.2014 09:50 10,7 C 8,9 C 92 % 1005,4 hPa 0,0 l/m 0 min 0 min 0,0 UV-I 12 W/m 15,4 km/h (3 Bft)
06.01.2014 09:52 10,7 C 8,9 C 92 % 1005,5 hPa 0,0 l/m 0 min 0 min 0,0 UV-I 12 W/m 10,3 km/h (2 Bft)
06.01.2014 09:54 10,8 C 8,9 C 92 % 1005,5 hPa 0,0 l/m 0 min 0 min 0,0 UV-I 11 W/m 15,4 km/h (3 Bft)
06.01.2014 09:56 10,8 C 8,9 C 92 % 1005,4 hPa 0,0 l/m 0 min 0 min 0,0 UV-I 7 W/m 25,7 km/h (4 Bft)
06.01.2014 09:58 10,9 C 8,9 C 91 % 1005,5 hPa 0,0 l/m 0 min 0 min 0,0 UV-I 7 W/m 23,2 km/h (4 Bft)
06.01.2014 10:00 10,9 C 8,9 C 91 % 1005,5 hPa 0,0 l/m 0 min 0 min 0,0 UV-I 11 W/m 15,4 km/h (3 Bft)
06.01.2014 10:02 11,0 C 8,9 C 91 % 1005,5 hPa 0,0 l/m 0 min 0 min 0,0 UV-I 12 W/m 12,9 km/h (3 Bft)
06.01.2014 10:04 11,1 C 8,9 C 91 % 1005,5 hPa 0,0 l/m 0 min 0 min 0,0 UV-I 12 W/m 15,4 km/h (3 Bft)
06.01.2014 10:06 11,1 C 8,9 C 91 % 1005,5 hPa 0,0 l/m 0 min 0 min 0,0 UV-I 18 W/m 12,9 km/h (3 Bft)
06.01.2014 10:08 11,2 C 8,9 C 90 % 1005,4 hPa 0,0 l/m 0 min 0 min 0,0 UV-I 25 W/m 18,0 km/h (3 Bft)
06.01.2014 10:10 11,2 C 8,9 C 90 % 1005,5 hPa 0,0 l/m 0 min 0 min 0,0 UV-I 23 W/m 12,9 km/h (3 Bft)
06.01.2014 10:12 11,2 C 8,9 C 90 % 1005,5 hPa 0,0 l/m 0 min 0 min 0,0 UV-I 14 W/m 18,0 km/h (3 Bft)
06.01.2014 10:14 11,3 C 8,9 C 90 % 1005,5 hPa 0,0 l/m 0 min 0 min 0,0 UV-I 11 W/m 7,7 km/h (2 Bft)
06.01.2014 10:16 11,3 C 8,9 C 90 % 1005,5 hPa 0,0 l/m 0 min 0 min 0,0 UV-I 9 W/m 20,6 km/h (4 Bft)
06.01.2014 10:18 11,3 C 8,9 C 89 % 1005,5 hPa 0,0 l/m 0 min 0 min 0,0 UV-I 11 W/m 12,9 km/h (3 Bft)
06.01.2014 10:20 11,3 C 9,4 C 89 % 1005,5 hPa 0,0 l/m 0 min 0 min 0,0 UV-I 14 W/m 18,0 km/h (3 Bft)
06.01.2014 10:22 11,4 C 9,4 C 89 % 1005,5 hPa 0,0 l/m 0 min 0 min 0,0 UV-I 16 W/m 7,7 km/h (2 Bft)
06.01.2014 10:24 11,4 C 9,4 C 89 % 1005,5 hPa 0,0 l/m 0 min 0 min 0,0 UV-I 19 W/m 7,7 km/h (2 Bft)
06.01.2014 10:26 11,4 C 9,4 C 89 % 1005,6 hPa 0,0 l/m 0 min 0 min 0,0 UV-I 19 W/m 12,9 km/h (3 Bft)
06.01.2014 10:28 11,4 C 9,4 C 89 % 1005,6 hPa 0,0 l/m 0 min 0 min 0,0 UV-I 19 W/m 12,9 km/h (3 Bft)
06.01.2014 10:30 11,4 C 9,4 C 89 % 1005,6 hPa 0,0 l/m 0 min 0 min 0,0 UV-I 16 W/m 7,7 km/h (2 Bft)
06.01.2014 10:32 11,5 C 9,4 C 89 % 1005,6 hPa 0,0 l/m 0 min 0 min 0,0 UV-I 16 W/m 20,6 km/h (4 Bft)
06.01.2014 10:34 11,5 C 9,4 C 88 % 1005,5 hPa 0,0 l/m 0 min 0 min 0,0 UV-I 19 W/m 20,6 km/h (4 Bft)
06.01.2014 10:36 11,5 C 9,4 C 88 % 1005,4 hPa 0,0 l/m 0 min 0 min 0,0 UV-I 19 W/m 12,9 km/h (3 Bft)
06.01.2014 10:38 11,6 C 9,4 C 88 % 1005,5 hPa 0,0 l/m 0 min 0 min 0,0 UV-I 19 W/m 23,2 km/h (4 Bft)
06.01.2014 10:40 11,6 C 9,4 C 88 % 1005,5 hPa 0,0 l/m 0 min 0 min 0,0 UV-I 12 W/m 12,9 km/h (3 Bft)
06.01.2014 10:42 11,6 C 9,4 C 88 % 1005,6 hPa 0,0 l/m 0 min 0 min 0,0 UV-I 14 W/m 12,9 km/h (3 Bft)
06.01.2014 10:44 11,6 C 9,4 C 88 % 1005,5 hPa 0,0 l/m 0 min 0 min 0,0 UV-I 12 W/m 20,6 km/h (4 Bft)
06.01.2014 10:46 11,6 C 9,4 C 88 % 1005,4 hPa 0,0 l/m 0 min 0 min 0,0 UV-I 16 W/m 10,3 km/h (2 Bft)
06.01.2014 10:48 11,6 C 9,4 C 88 % 1005,5 hPa 0,0 l/m 0 min 0 min 0,0 UV-I 16 W/m 20,6 km/h (4 Bft)
06.01.2014 10:50 11,6 C 9,4 C 88 % 1005,5 hPa 0,0 l/m 0 min 0 min 0,0 UV-I 18 W/m 18,0 km/h (3 Bft)
06.01.2014 10:52 11,6 C 9,4 C 88 % 1005,5 hPa 0,0 l/m 0 min 0 min 0,0 UV-I 21 W/m 18,0 km/h (3 Bft)
06.01.2014 10:54 11,6 C 9,4 C 88 % 1005,5 hPa 0,0 l/m 0 min 0 min 0,0 UV-I 25 W/m 18,0 km/h (3 Bft)
06.01.2014 10:56 11,6 C 9,4 C 88 % 1005,4 hPa 0,0 l/m 0 min 0 min 0,0 UV-I 16 W/m 18,0 km/h (3 Bft)
06.01.2014 10:58 11,6 C 10,0 C 88 % 1005,5 hPa 0,0 l/m 0 min 0 min 0,0 UV-I 21 W/m 18,0 km/h (3 Bft)
06.01.2014 11:00 11,6 C 10,0 C 88 % 1005,4 hPa 0,0 l/m 0 min 0 min 0,0 UV-I 28 W/m 15,4 km/h (3 Bft)
06.01.2014 11:02 11,6 C 10,0 C 88 % 1005,3 hPa 0,0 l/m 0 min 0 min 0,0 UV-I 26 W/m 20,6 km/h (4 Bft)
06.01.2014 11:04 11,6 C 10,0 C 88 % 1005,3 hPa 0,0 l/m 0 min 0 min 0,0 UV-I 21 W/m 23,2 km/h (4 Bft)
06.01.2014 11:06 11,7 C 10,0 C 88 % 1005,3 hPa 0,0 l/m 0 min 0 min 0,0 UV-I 21 W/m 7,7 km/h (2 Bft)
06.01.2014 11:08 11,7 C 10,0 C 88 % 1005,3 hPa 0,0 l/m 0 min 0 min 0,0 UV-I 19 W/m 12,9 km/h (3 Bft)
06.01.2014 11:10 11,7 C 10,0 C 88 % 1005,2 hPa 0,0 l/m 0 min 0 min 0,0 UV-I 16 W/m 23,2 km/h (4 Bft)
06.01.2014 11:12 11,7 C 10,0 C 87 % 1005,4 hPa 0,0 l/m 0 min 0 min 0,0 UV-I 16 W/m 15,4 km/h (3 Bft)
06.01.2014 11:14 11,7 C 10,0 C 87 % 1005,2 hPa 0,0 l/m 0 min 0 min 0,0 UV-I 25 W/m 5,1 km/h (1 Bft)
06.01.2014 11:16 11,7 C 10,0 C 87 % 1005,2 hPa 0,0 l/m 0 min 0 min 0,0 UV-I 35 W/m 20,6 km/h (4 Bft)
06.01.2014 11:18 11,7 C 10,0 C 87 % 1005,3 hPa 0,0 l/m 0 min 0 min 0,0 UV-I 46 W/m 30,9 km/h (5 Bft)
06.01.2014 11:20 11,8 C 10,0 C 87 % 1005,4 hPa 0,0 l/m 0 min 0 min 0,0 UV-I 42 W/m 10,3 km/h (2 Bft)
06.01.2014 11:22 11,8 C 10,0 C 87 % 1005,5 hPa 0,0 l/m 0 min 0 min 0,0 UV-I 12 W/m 12,9 km/h (3 Bft)
06.01.2014 11:24 11,8 C 10,0 C 87 % 1005,4 hPa 0,0 l/m 0 min 0 min 0,0 UV-I 9 W/m 15,4 km/h (3 Bft)
06.01.2014 11:26 11,8 C 10,0 C 87 % 1005,5 hPa 0,0 l/m 0 min 0 min 0,0 UV-I 9 W/m 18,0 km/h (3 Bft)
06.01.2014 11:28 11,8 C 10,0 C 87 % 1005,5 hPa 0,0 l/m 0 min 0 min 0,0 UV-I 11 W/m 7,7 km/h (2 Bft)
06.01.2014 11:30 11,9 C 10,0 C 87 % 1005,5 hPa 0,0 l/m 0 min 2 min 0,0 UV-I 14 W/m 5,1 km/h (1 Bft)
06.01.2014 11:32 11,9 C 10,0 C 87 % 1005,5 hPa 0,0 l/m 0 min 0 min 0,0 UV-I 21 W/m 20,6 km/h (4 Bft)
06.01.2014 11:34 11,9 C 10,0 C 87 % 1005,4 hPa 0,0 l/m 0 min 0 min 0,0 UV-I 33 W/m 23,2 km/h (4 Bft)
06.01.2014 11:36 11,9 C 10,0 C 87 % 1005,5 hPa 0,0 l/m 0 min 0 min 0,0 UV-I 42 W/m 18,0 km/h (3 Bft)
06.01.2014 11:38 11,9 C 10,0 C 87 % 1005,3 hPa 0,0 l/m 0 min 0 min 0,0 UV-I 35 W/m 20,6 km/h (4 Bft)
06.01.2014 11:40 11,9 C 10,0 C 87 % 1005,5 hPa 0,0 l/m 0 min 0 min 0,0 UV-I 35 W/m 10,3 km/h (2 Bft)
06.01.2014 11:42 11,9 C 10,0 C 87 % 1005,4 hPa 0,0 l/m 0 min 0 min 0,0 UV-I 28 W/m 7,7 km/h (2 Bft)
06.01.2014 11:44 11,9 C 10,0 C 87 % 1005,5 hPa 0,0 l/m 0 min 0 min 0,0 UV-I 26 W/m 15,4 km/h (3 Bft)
06.01.2014 11:46 11,9 C 10,0 C 87 % 1005,5 hPa 0,0 l/m 0 min 0 min 0,0 UV-I 30 W/m 18,0 km/h (3 Bft)
06.01.2014 11:48 11,9 C 10,0 C 87 % 1005,5 hPa 0,0 l/m 0 min 0 min 0,0 UV-I 28 W/m 15,4 km/h (3 Bft)
06.01.2014 11:50 11,9 C 10,6 C 87 % 1005,6 hPa 0,0 l/m 0 min 0 min 0,0 UV-I 28 W/m 23,2 km/h (4 Bft)
06.01.2014 11:52 12,0 C 10,6 C 87 % 1005,6 hPa 0,0 l/m 0 min 0 min 0,0 UV-I 33 W/m 5,1 km/h (1 Bft)
06.01.2014 11:54 12,0 C 10,6 C 87 % 1005,6 hPa 0,0 l/m 0 min 0 min 0,0 UV-I 35 W/m 7,7 km/h (2 Bft)
06.01.2014 11:56 12,0 C 10,6 C 87 % 1005,6 hPa 0,0 l/m 0 min 0 min 0,0 UV-I 33 W/m 15,4 km/h (3 Bft)
06.01.2014 11:58 12,0 C 10,6 C 87 % 1005,5 hPa 0,0 l/m 0 min 0 min 0,0 UV-I 35 W/m 12,9 km/h (3 Bft)
06.01.2014 12:00 12,1 C 10,6 C 87 % 1005,6 hPa 0,0 l/m 0 min 0 min 0,0 UV-I 39 W/m 10,3 km/h (2 Bft)
06.01.2014 12:02 12,1 C 10,6 C 87 % 1005,6 hPa 0,0 l/m 0 min 0 min 0,0 UV-I 40 W/m 12,9 km/h (3 Bft)
06.01.2014 12:04 12,1 C 10,6 C 87 % 1005,6 hPa 0,0 l/m 0 min 0 min 0,0 UV-I 40 W/m 15,4 km/h (3 Bft)
06.01.2014 12:06 12,1 C 10,6 C 87 % 1005,6 hPa 0,0 l/m 0 min 0 min 0,0 UV-I 33 W/m 20,6 km/h (4 Bft)
06.01.2014 12:08 12,2 C 10,6 C 87 % 1005,6 hPa 0,0 l/m 0 min 0 min 0,0 UV-I 39 W/m 33,5 km/h (5 Bft)
06.01.2014 12:10 12,2 C 10,6 C 87 % 1005,5 hPa 0,0 l/m 0 min 0 min 0,0 UV-I 40 W/m 15,4 km/h (3 Bft)
06.01.2014 12:12 12,2 C 10,6 C 87 % 1005,6 hPa 0,0 l/m 0 min 0 min 0,0 UV-I 46 W/m 18,0 km/h (3 Bft)
06.01.2014 12:14 12,2 C 11,1 C 86 % 1005,5 hPa 0,0 l/m 0 min 0 min 0,0 UV-I 62 W/m 20,6 km/h (4 Bft)
06.01.2014 12:16 12,3 C 11,1 C 86 % 1005,5 hPa 0,0 l/m 0 min 0 min 0,0 UV-I 74 W/m 30,9 km/h (5 Bft)
06.01.2014 12:18 12,4 C 11,1 C 86 % 1005,5 hPa 0,0 l/m 0 min 0 min 0,0 UV-I 84 W/m 30,9 km/h (5 Bft)
06.01.2014 12:20 12,6 C 11,1 C 86 % 1005,4 hPa 0,0 l/m 0 min 0 min 0,0 UV-I 67 W/m 20,6 km/h (4 Bft)
06.01.2014 12:22 12,7 C 11,1 C 85 % 1005,3 hPa 0,0 l/m 0 min 0 min 0,0 UV-I 88 W/m 23,2 km/h (4 Bft)
06.01.2014 12:24 12,8 C 11,1 C 85 % 1005,5 hPa 0,0 l/m 0 min 0 min 0,0 UV-I 121 W/m 25,7 km/h (4 Bft)
06.01.2014 12:26 12,8 C 11,7 C 85 % 1005,5 hPa 0,0 l/m 0 min 0 min 0,0 UV-I 114 W/m 30,9 km/h (5 Bft)
06.01.2014 12:28 12,9 C 11,7 C 84 % 1005,2 hPa 0,0 l/m 0 min 0 min 0,0 UV-I 88 W/m 20,6 km/h (4 Bft)
06.01.2014 12:30 12,9 C 11,7 C 84 % 1005,3 hPa 0,0 l/m 0 min 0 min 0,0 UV-I 72 W/m 18,0 km/h (3 Bft)
06.01.2014 12:32 13,0 C 11,7 C 84 % 1005,1 hPa 0,0 l/m 0 min 0 min 0,0 UV-I 83 W/m 23,2 km/h (4 Bft)
06.01.2014 12:34 13,0 C 11,7 C 84 % 1005,3 hPa 0,0 l/m 0 min 0 min 0,0 UV-I 100 W/m 23,2 km/h (4 Bft)
06.01.2014 12:36 13,1 C 11,7 C 84 % 1005,0 hPa 0,0 l/m 0 min 0 min 0,0 UV-I 67 W/m 20,6 km/h (4 Bft)
06.01.2014 12:38 13,1 C 11,7 C 84 % 1005,1 hPa 0,0 l/m 0 min 0 min 0,0 UV-I 91 W/m 12,9 km/h (3 Bft)
06.01.2014 12:40 13,1 C 11,7 C 84 % 1004,9 hPa 0,0 l/m 0 min 0 min 0,0 UV-I 70 W/m 12,9 km/h (3 Bft)
06.01.2014 12:42 13,1 C 11,7 C 84 % 1004,9 hPa 0,0 l/m 0 min 0 min 0,0 UV-I 67 W/m 30,9 km/h (5 Bft)
06.01.2014 12:44 13,1 C 11,7 C 84 % 1004,9 hPa 0,0 l/m 0 min 0 min 0,0 UV-I 69 W/m 25,7 km/h (4 Bft)
06.01.2014 12:46 13,1 C 11,7 C 84 % 1004,9 hPa 0,0 l/m 0 min 0 min 0,0 UV-I 74 W/m 30,9 km/h (5 Bft)
06.01.2014 12:48 13,1 C 11,7 C 84 % 1004,9 hPa 0,0 l/m 0 min 0 min 0,0 UV-I 90 W/m 15,4 km/h (3 Bft)
06.01.2014 12:50 13,1 C 11,7 C 84 % 1004,7 hPa 0,0 l/m 0 min 0 min 0,0 UV-I 113 W/m 20,6 km/h (4 Bft)
06.01.2014 12:52 13,1 C 11,7 C 84 % 1004,6 hPa 0,0 l/m 0 min 0 min 0,0 UV-I 144 W/m 20,6 km/h (4 Bft)
06.01.2014 12:54 13,2 C 11,7 C 84 % 1004,7 hPa 0,0 l/m 0 min 0 min 0,0 UV-I 132 W/m 28,3 km/h (4 Bft)
06.01.2014 12:56 13,3 C 11,7 C 83 % 1004,6 hPa 0,0 l/m 0 min 0 min 0,0 UV-I 130 W/m 20,6 km/h (4 Bft)
06.01.2014 12:58 13,3 C 11,7 C 83 % 1004,5 hPa 0,0 l/m 0 min 0 min 0,0 UV-I 125 W/m 18,0 km/h (3 Bft)
06.01.2014 13:00 13,4 C 12,2 C 83 % 1004,5 hPa 0,0 l/m 0 min 0 min 0,0 UV-I 130 W/m 15,4 km/h (3 Bft)
06.01.2014 13:02 13,4 C 12,2 C 83 % 1004,4 hPa 0,0 l/m 0 min 0 min 0,0 UV-I 151 W/m 30,9 km/h (5 Bft)
06.01.2014 13:04 13,5 C 12,2 C 82 % 1004,4 hPa 0,0 l/m 0 min 0 min 0,0 UV-I 137 W/m 18,0 km/h (3 Bft)
06.01.2014 13:06 13,6 C 12,2 C 82 % 1004,7 hPa 0,0 l/m 0 min 0 min 0,0 UV-I 146 W/m 33,5 km/h (5 Bft)
06.01.2014 13:08 13,6 C 12,2 C 82 % 1004,4 hPa 0,0 l/m 0 min 0 min 0,0 UV-I 118 W/m 25,7 km/h (4 Bft)
06.01.2014 13:10 13,6 C 12,2 C 82 % 1004,6 hPa 0,0 l/m 0 min 0 min 0,0 UV-I 134 W/m 25,7 km/h (4 Bft)
06.01.2014 13:12 13,7 C 12,2 C 82 % 1004,5 hPa 0,0 l/m 0 min 0 min 0,0 UV-I 123 W/m 30,9 km/h (5 Bft)
06.01.2014 13:14 13,7 C 12,2 C 82 % 1004,5 hPa 0,0 l/m 0 min 0 min 0,0 UV-I 111 W/m 12,9 km/h (3 Bft)
06.01.2014 13:16 13,7 C 12,2 C 82 % 1004,6 hPa 0,0 l/m 2 min 0 min 0,0 UV-I 193 W/m 20,6 km/h (4 Bft)
06.01.2014 13:18 13,8 C 12,2 C 82 % 1004,6 hPa 0,0 l/m 0 min 0 min 0,0 UV-I 111 W/m 20,6 km/h (4 Bft)
06.01.2014 13:20 13,8 C 12,2 C 82 % 1004,8 hPa 0,0 l/m 0 min 0 min 0,0 UV-I 111 W/m 23,2 km/h (4 Bft)
06.01.2014 13:22 13,9 C 12,2 C 82 % 1004,7 hPa 0,0 l/m 0 min 0 min 0,0 UV-I 72 W/m 18,0 km/h (3 Bft)
06.01.2014 13:24 13,8 C 12,2 C 82 % 1004,7 hPa 0,0 l/m 0 min 0 min 0,0 UV-I 79 W/m 20,6 km/h (4 Bft)
06.01.2014 13:26 13,8 C 12,2 C 81 % 1004,8 hPa 0,0 l/m 0 min 0 min 0,0 UV-I 72 W/m 28,3 km/h (4 Bft)
06.01.2014 13:28 13,8 C 12,2 C 81 % 1004,6 hPa 0,0 l/m 0 min 0 min 0,0 UV-I 70 W/m 30,9 km/h (5 Bft)
06.01.2014 13:30 13,9 C 12,2 C 81 % 1004,6 hPa 0,0 l/m 2 min 0 min 0,0 UV-I 343 W/m 18,0 km/h (3 Bft)
06.01.2014 13:32 14,1 C 12,2 C 82 % 1004,5 hPa 0,0 l/m 2 min 0 min 0,0 UV-I 322 W/m 20,6 km/h (4 Bft)
06.01.2014 13:34 14,2 C 12,2 C 81 % 1004,6 hPa 0,0 l/m 0 min 0 min 0,0 UV-I 113 W/m 15,4 km/h (3 Bft)
06.01.2014 13:36 14,2 C 12,2 C 81 % 1004,6 hPa 0,0 l/m 0 min 0 min 0,0 UV-I 107 W/m 15,4 km/h (3 Bft)
06.01.2014 13:38 14,2 C 12,2 C 81 % 1004,6 hPa 0,0 l/m 2 min 0 min 0,0 UV-I 153 W/m 23,2 km/h (4 Bft)
06.01.2014 13:40 14,2 C 12,2 C 83 % 1004,4 hPa 0,0 l/m 0 min 0 min 0,0 UV-I 120 W/m 20,6 km/h (4 Bft)
06.01.2014 13:42 14,2 C 12,2 C 81 % 1004,4 hPa 0,0 l/m 0 min 0 min 0,0 UV-I 95 W/m 12,9 km/h (3 Bft)
06.01.2014 13:44 14,1 C 12,2 C 81 % 1004,4 hPa 0,0 l/m 2 min 0 min 0,0 UV-I 156 W/m 15,4 km/h (3 Bft)
06.01.2014 13:46 14,2 C 12,2 C 81 % 1004,3 hPa 0,0 l/m 0 min 0 min 0,0 UV-I 118 W/m 33,5 km/h (5 Bft)
06.01.2014 13:48 14,2 C 12,2 C 81 % 1004,3 hPa 0,0 l/m 0 min 0 min 0,0 UV-I 70 W/m 23,2 km/h (4 Bft)
06.01.2014 13:50 14,2 C 12,2 C 81 % 1004,3 hPa 0,0 l/m 0 min 0 min 0,0 UV-I 74 W/m 18,0 km/h (3 Bft)
06.01.2014 13:52 14,2 C 12,2 C 83 % 1004,3 hPa 0,0 l/m 0 min 0 min 0,0 UV-I 76 W/m 15,4 km/h (3 Bft)
06.01.2014 13:54 14,2 C 12,2 C 83 % 1004,3 hPa 0,0 l/m 0 min 0 min 0,0 UV-I 83 W/m 23,2 km/h (4 Bft)
06.01.2014 13:56 14,2 C 12,2 C 80 % 1004,2 hPa 0,0 l/m 0 min 0 min 0,0 UV-I 77 W/m 12,9 km/h (3 Bft)
06.01.2014 13:58 14,2 C 12,2 C 83 % 1004,2 hPa 0,0 l/m 0 min 0 min 0,0 UV-I 65 W/m 23,2 km/h (4 Bft)
06.01.2014 14:00 14,2 C 12,2 C 81 % 1004,2 hPa 0,0 l/m 0 min 0 min 0,0 UV-I 83 W/m 18,0 km/h (3 Bft)
06.01.2014 14:02 14,2 C 12,2 C 83 % 1004,2 hPa 0,0 l/m 0 min 0 min 0,0 UV-I 56 W/m 15,4 km/h (3 Bft)
06.01.2014 14:04 14,2 C 12,2 C 80 % 1004,2 hPa 0,0 l/m 0 min 0 min 0,0 UV-I 72 W/m 20,6 km/h (4 Bft)
06.01.2014 14:06 14,2 C 12,2 C 80 % 1004,1 hPa 0,0 l/m 0 min 0 min 0,0 UV-I 69 W/m 12,9 km/h (3 Bft)
06.01.2014 14:08 14,2 C 12,2 C 81 % 1004,1 hPa 0,0 l/m 0 min 0 min 0,0 UV-I 42 W/m 15,4 km/h (3 Bft)
06.01.2014 14:10 14,2 C 12,2 C 81 % 1004,1 hPa 0,0 l/m 0 min 0 min 0,0 UV-I 28 W/m 15,4 km/h (3 Bft)
06.01.2014 14:12 14,1 C 12,2 C 81 % 1004,1 hPa 0,0 l/m 0 min 0 min 0,0 UV-I 76 W/m 18,0 km/h (3 Bft)
06.01.2014 14:14 14,1 C 12,2 C 81 % 1004,2 hPa 0,0 l/m 0 min 0 min 0,0 UV-I 70 W/m 15,4 km/h (3 Bft)
06.01.2014 14:16 14,1 C 12,2 C 81 % 1004,3 hPa 0,0 l/m 0 min 0 min 0,0 UV-I 60 W/m 12,9 km/h (3 Bft)
06.01.2014 14:18 14,1 C 12,2 C 81 % 1004,3 hPa 0,0 l/m 0 min 0 min 0,0 UV-I 63 W/m 25,7 km/h (4 Bft)
06.01.2014 14:20 14,1 C 12,2 C 81 % 1004,3 hPa 0,0 l/m 0 min 0 min 0,0 UV-I 44 W/m 20,6 km/h (4 Bft)
06.01.2014 14:22 14,2 C 12,2 C 80 % 1004,3 hPa 0,0 l/m 2 min 0 min 0,0 UV-I 144 W/m 15,4 km/h (3 Bft)
06.01.2014 14:24 14,2 C 12,2 C 81 % 1004,4 hPa 0,0 l/m 0 min 0 min 0,0 UV-I 44 W/m 20,6 km/h (4 Bft)
06.01.2014 14:26 14,2 C 12,2 C 80 % 1004,2 hPa 0,0 l/m 0 min 0 min 0,0 UV-I 53 W/m 15,4 km/h (3 Bft)
06.01.2014 14:28 14,1 C 12,2 C 81 % 1004,2 hPa 0,0 l/m 0 min 0 min 0,0 UV-I 114 W/m 12,9 km/h (3 Bft)
06.01.2014 14:30 14,2 C 12,2 C 81 % 1004,3 hPa 0,0 l/m 0 min 0 min 0,0 UV-I 74 W/m 12,9 km/h (3 Bft)
06.01.2014 14:32 14,2 C 12,2 C 83 % 1004,2 hPa 0,0 l/m 2 min 0 min 0,0 UV-I 169 W/m 12,9 km/h (3 Bft)
06.01.2014 14:34 14,2 C 12,2 C 81 % 1004,1 hPa 0,0 l/m 2 min 0 min 0,0 UV-I 229 W/m 5,1 km/h (1 Bft)
06.01.2014 14:36 14,2 C 12,8 C 81 % 1004,1 hPa 0,0 l/m 0 min 0 min 0,0 UV-I 109 W/m 18,0 km/h (3 Bft)
06.01.2014 14:38 14,2 C 12,2 C 80 % 1004,2 hPa 0,0 l/m 0 min 0 min 0,0 UV-I 76 W/m 18,0 km/h (3 Bft)
06.01.2014 14:40 14,2 C 12,2 C 80 % 1004,2 hPa 0,0 l/m 0 min 0 min 0,0 UV-I 67 W/m 18,0 km/h (3 Bft)
06.01.2014 14:42 14,2 C 12,2 C 80 % 1004,3 hPa 0,0 l/m 0 min 0 min 0,0 UV-I 53 W/m 12,9 km/h (3 Bft)
06.01.2014 14:44 14,2 C 12,2 C 81 % 1004,2 hPa 0,0 l/m 0 min 0 min 0,0 UV-I 46 W/m 18,0 km/h (3 Bft)
06.01.2014 14:46 14,2 C 12,2 C 81 % 1004,2 hPa 0,0 l/m 0 min 0 min 0,0 UV-I 35 W/m 2,6 km/h (1 Bft)
06.01.2014 14:48 14,2 C 12,2 C 81 % 1004,2 hPa 0,0 l/m 0 min 0 min 0,0 UV-I 32 W/m 7,7 km/h (2 Bft)
06.01.2014 14:50 14,1 C 12,2 C 81 % 1004,3 hPa 0,0 l/m 0 min 0 min 0,0 UV-I 35 W/m 12,9 km/h (3 Bft)
06.01.2014 14:52 14,1 C 12,2 C 81 % 1004,3 hPa 0,0 l/m 0 min 0 min 0,0 UV-I 28 W/m 7,7 km/h (2 Bft)
06.01.2014 14:54 14,0 C 12,2 C 81 % 1004,3 hPa 0,0 l/m 0 min 0 min 0,0 UV-I 25 W/m 7,7 km/h (2 Bft)
06.01.2014 14:56 14,0 C 12,2 C 81 % 1004,4 hPa 0,0 l/m 0 min 0 min 0,0 UV-I 28 W/m 5,1 km/h (1 Bft)
06.01.2014 14:58 13,9 C 12,2 C 82 % 1004,4 hPa 0,0 l/m 0 min 0 min 0,0 UV-I 19 W/m 2,6 km/h (1 Bft)
06.01.2014 15:00 13,9 C 11,7 C 82 % 1004,4 hPa 0,0 l/m 0 min 0 min 0,0 UV-I 16 W/m 10,3 km/h (2 Bft)
06.01.2014 15:02 13,8 C 11,7 C 82 % 1004,4 hPa 0,0 l/m 0 min 0 min 0,0 UV-I 19 W/m 12,9 km/h (3 Bft)
06.01.2014 15:04 13,7 C 11,7 C 82 % 1004,4 hPa 0,0 l/m 0 min 0 min 0,0 UV-I 18 W/m 10,3 km/h (2 Bft)
06.01.2014 15:06 13,6 C 11,7 C 83 % 1004,3 hPa 0,0 l/m 0 min 0 min 0,0 UV-I 19 W/m 23,2 km/h (4 Bft)
06.01.2014 15:08 13,4 C 11,7 C 83 % 1004,3 hPa 0,0 l/m 0 min 0 min 0,0 UV-I 30 W/m 15,4 km/h (3 Bft)
06.01.2014 15:10 13,3 C 11,7 C 84 % 1004,2 hPa 0,0 l/m 0 min 0 min 0,0 UV-I 23 W/m 12,9 km/h (3 Bft)
06.01.2014 15:12 13,2 C 11,7 C 84 % 1004,3 hPa 0,0 l/m 0 min 0 min 0,0 UV-I 23 W/m 12,9 km/h (3 Bft)
06.01.2014 15:14 13,2 C 11,1 C 84 % 1004,2 hPa 0,0 l/m 0 min 0 min 0,0 UV-I 23 W/m 10,3 km/h (2 Bft)
06.01.2014 15:16 13,1 C 11,1 C 85 % 1004,2 hPa 0,0 l/m 0 min 0 min 0,0 UV-I 19 W/m 12,9 km/h (3 Bft)
06.01.2014 15:18 13,0 C 11,1 C 85 % 1004,3 hPa 0,0 l/m 0 min 0 min 0,0 UV-I 25 W/m 0,0 km/h (0 Bft)
06.01.2014 15:20 13,0 C 11,1 C 85 % 1004,2 hPa 0,0 l/m 0 min 0 min 0,0 UV-I 19 W/m 10,3 km/h (2 Bft)
06.01.2014 15:22 12,9 C 11,1 C 85 % 1004,2 hPa 0,0 l/m 0 min 0 min 0,0 UV-I 12 W/m 10,3 km/h (2 Bft)
06.01.2014 15:24 12,9 C 11,1 C 86 % 1004,2 hPa 0,0 l/m 0 min 0 min 0,0 UV-I 16 W/m 12,9 km/h (3 Bft)
06.01.2014 15:26 12,9 C 11,1 C 86 % 1004,2 hPa 0,0 l/m 0 min 0 min 0,0 UV-I 19 W/m 15,4 km/h (3 Bft)
06.01.2014 15:28 12,9 C 11,1 C 86 % 1004,1 hPa 0,0 l/m 0 min 0 min 0,0 UV-I 11 W/m 15,4 km/h (3 Bft)
06.01.2014 15:30 12,9 C 11,1 C 86 % 1004,1 hPa 0,0 l/m 0 min 0 min 0,0 UV-I 9 W/m 18,0 km/h (3 Bft)
06.01.2014 15:32 12,9 C 11,1 C 86 % 1004,3 hPa 0,0 l/m 0 min 0 min 0,0 UV-I 12 W/m 7,7 km/h (2 Bft)
06.01.2014 15:34 12,9 C 11,1 C 86 % 1004,2 hPa 0,0 l/m 0 min 0 min 0,0 UV-I 11 W/m 7,7 km/h (2 Bft)
06.01.2014 15:36 12,9 C 11,1 C 86 % 1004,0 hPa 0,0 l/m 0 min 0 min 0,0 UV-I 12 W/m 12,9 km/h (3 Bft)
06.01.2014 15:38 12,9 C 11,1 C 86 % 1003,9 hPa 0,0 l/m 0 min 0 min 0,0 UV-I 14 W/m 12,9 km/h (3 Bft)
06.01.2014 15:40 12,9 C 11,1 C 86 % 1003,8 hPa 0,0 l/m 0 min 0 min 0,0 UV-I 21 W/m 10,3 km/h (2 Bft)
06.01.2014 15:42 12,9 C 11,1 C 86 % 1003,7 hPa 0,0 l/m 0 min 2 min 0,0 UV-I 26 W/m 2,6 km/h (1 Bft)
06.01.2014 15:44 12,9 C 10,6 C 86 % 1003,7 hPa 0,0 l/m 0 min 2 min 0,0 UV-I 25 W/m 7,7 km/h (2 Bft)
06.01.2014 15:46 12,9 C 10,6 C 86 % 1003,8 hPa 0,0 l/m 0 min 2 min 0,0 UV-I 23 W/m 7,7 km/h (2 Bft)
06.01.2014 15:48 12,9 C 10,6 C 86 % 1003,9 hPa 0,0 l/m 0 min 0 min 0,0 UV-I 14 W/m 15,4 km/h (3 Bft)
06.01.2014 15:50 12,9 C 10,6 C 86 % 1003,9 hPa 0,0 l/m 0 min 0 min 0,0 UV-I 14 W/m 18,0 km/h (3 Bft)
06.01.2014 15:52 12,9 C 10,6 C 86 % 1003,9 hPa 0,0 l/m 0 min 0 min 0,0 UV-I 14 W/m 10,3 km/h (2 Bft)
06.01.2014 15:54 13,0 C 10,6 C 86 % 1004,0 hPa 0,0 l/m 0 min 0 min 0,0 UV-I 16 W/m 10,3 km/h (2 Bft)
06.01.2014 15:56 13,0 C 10,6 C 86 % 1003,8 hPa 0,0 l/m 0 min 0 min 0,0 UV-I 14 W/m 2,6 km/h (1 Bft)
06.01.2014 15:58 13,1 C 11,1 C 86 % 1004,0 hPa 0,0 l/m 0 min 0 min 0,0 UV-I 11 W/m 10,3 km/h (2 Bft)
06.01.2014 16:00 13,1 C 11,1 C 85 % 1004,1 hPa 0,0 l/m 0 min 0 min 0,0 UV-I 11 W/m 7,7 km/h (2 Bft)
06.01.2014 16:02 13,1 C 11,1 C 85 % 1004,0 hPa 0,0 l/m 0 min 0 min 0,0 UV-I 7 W/m 12,9 km/h (3 Bft)
06.01.2014 16:04 13,1 C 11,1 C 85 % 1004,1 hPa 0,0 l/m 0 min 0 min 0,0 UV-I 7 W/m 18,0 km/h (3 Bft)
06.01.2014 16:06 13,2 C 11,1 C 85 % 1004,4 hPa 0,0 l/m 0 min 0 min 0,0 UV-I 12 W/m 10,3 km/h (2 Bft)
06.01.2014 16:08 13,2 C 11,1 C 85 % 1004,3 hPa 0,0 l/m 0 min 0 min 0,0 UV-I 12 W/m 10,3 km/h (2 Bft)
06.01.2014 16:10 13,2 C 11,7 C 85 % 1004,4 hPa 0,0 l/m 0 min 0 min 0,0 UV-I 11 W/m 10,3 km/h (2 Bft)
06.01.2014 16:12 13,2 C 11,7 C 84 % 1004,3 hPa 0,0 l/m 0 min 0 min 0,0 UV-I 9 W/m 18,0 km/h (3 Bft)
06.01.2014 16:14 13,2 C 11,7 C 84 % 1004,2 hPa 0,0 l/m 0 min 0 min 0,0 UV-I 9 W/m 10,3 km/h (2 Bft)
06.01.2014 16:16 13,3 C 11,7 C 84 % 1004,2 hPa 0,0 l/m 0 min 0 min 0,0 UV-I 7 W/m 10,3 km/h (2 Bft)
06.01.2014 16:18 13,3 C 11,7 C 84 % 1004,2 hPa 0,0 l/m 0 min 0 min 0,0 UV-I 5 W/m 18,0 km/h (3 Bft)
06.01.2014 16:20 13,3 C 11,7 C 84 % 1004,3 hPa 0,0 l/m 0 min 0 min 0,0 UV-I 0 W/m 10,3 km/h (2 Bft)
06.01.2014 16:22 13,3 C 11,7 C 83 % 1004,4 hPa 0,0 l/m 0 min 0 min 0,0 UV-I 0 W/m 23,2 km/h (4 Bft)
06.01.2014 16:24 13,4 C 11,7 C 83 % 1004,4 hPa 0,0 l/m 0 min 0 min 0,0 UV-I 0 W/m 12,9 km/h (3 Bft)
06.01.2014 16:26 13,4 C 11,7 C 83 % 1004,4 hPa 0,0 l/m 0 min 0 min 0,0 UV-I 0 W/m 12,9 km/h (3 Bft)
06.01.2014 16:28 13,4 C 11,7 C 83 % 1004,4 hPa 0,0 l/m 0 min 0 min 0,0 UV-I 0 W/m 23,2 km/h (4 Bft)
06.01.2014 16:30 13,4 C 11,7 C 82 % 1004,3 hPa 0,0 l/m 0 min 0 min 0,0 UV-I 0 W/m 7,7 km/h (2 Bft)
06.01.2014 16:32 13,5 C 11,7 C 82 % 1004,3 hPa 0,0 l/m 0 min 0 min 0,0 UV-I 0 W/m 18,0 km/h (3 Bft)
06.01.2014 16:34 13,5 C 11,7 C 82 % 1004,3 hPa 0,0 l/m 0 min 0 min 0,0 UV-I 0 W/m 20,6 km/h (4 Bft)
06.01.2014 16:36 13,6 C 11,7 C 82 % 1004,2 hPa 0,0 l/m 0 min 2 min 0,0 UV-I 0 W/m 12,9 km/h (3 Bft)
06.01.2014 16:38 13,6 C 11,7 C 82 % 1004,4 hPa 0,0 l/m 0 min 0 min 0,0 UV-I 0 W/m 10,3 km/h (2 Bft)
06.01.2014 16:40 13,6 C 11,7 C 82 % 1004,4 hPa 0,0 l/m 0 min 0 min 0,0 UV-I 0 W/m 15,4 km/h (3 Bft)
06.01.2014 16:42 13,6 C 11,7 C 82 % 1004,5 hPa 0,0 l/m 0 min 0 min 0,0 UV-I 0 W/m 20,6 km/h (4 Bft)
06.01.2014 16:44 13,6 C 11,7 C 82 % 1004,4 hPa 0,0 l/m 0 min 0 min 0,0 UV-I 0 W/m 12,9 km/h (3 Bft)
06.01.2014 16:46 13,6 C 11,7 C 82 % 1004,4 hPa 0,0 l/m 0 min 0 min 0,0 UV-I 0 W/m 10,3 km/h (2 Bft)
06.01.2014 16:48 13,6 C 11,7 C 82 % 1004,4 hPa 0,0 l/m 0 min 0 min 0,0 UV-I 0 W/m 15,4 km/h (3 Bft)
06.01.2014 16:50 13,6 C 11,7 C 82 % 1004,2 hPa 0,0 l/m 0 min 0 min 0,0 UV-I 0 W/m 12,9 km/h (3 Bft)
06.01.2014 16:52 13,7 C 11,7 C 82 % 1004,3 hPa 0,0 l/m 0 min 0 min 0,0 UV-I 0 W/m 15,4 km/h (3 Bft)
06.01.2014 16:54 13,7 C 11,7 C 82 % 1004,2 hPa 0,0 l/m 0 min 0 min 0,0 UV-I 0 W/m 43,8 km/h (6 Bft)
06.01.2014 16:56 13,7 C 11,7 C 82 % 1004,1 hPa 0,0 l/m 0 min 0 min 0,0 UV-I 0 W/m 23,2 km/h (4 Bft)
06.01.2014 16:58 13,7 C 11,7 C 82 % 1004,1 hPa 0,0 l/m 0 min 0 min 0,0 UV-I 0 W/m 12,9 km/h (3 Bft)
06.01.2014 17:00 13,7 C 11,7 C 82 % 1004,0 hPa 0,0 l/m 0 min 0 min 0,0 UV-I 0 W/m 23,2 km/h (4 Bft)
06.01.2014 17:02 13,7 C 11,7 C 82 % 1004,2 hPa 0,0 l/m 0 min 0 min 0,0 UV-I 0 W/m 12,9 km/h (3 Bft)
06.01.2014 17:04 13,6 C 11,1 C 82 % 1004,1 hPa 0,0 l/m 0 min 0 min 0,0 UV-I 0 W/m 12,9 km/h (3 Bft)
06.01.2014 17:06 13,6 C 11,1 C 82 % 1004,2 hPa 0,0 l/m 0 min 0 min 0,0 UV-I 0 W/m 10,3 km/h (2 Bft)
06.01.2014 17:08 13,6 C 11,1 C 82 % 1004,2 hPa 0,0 l/m 0 min 0 min 0,0 UV-I 0 W/m 15,4 km/h (3 Bft)
06.01.2014 17:10 13,6 C 11,1 C 82 % 1004,2 hPa 0,0 l/m 0 min 0 min 0,0 UV-I 0 W/m 15,4 km/h (3 Bft)
06.01.2014 17:12 13,5 C 11,1 C 82 % 1004,2 hPa 0,0 l/m 0 min 0 min 0,0 UV-I 0 W/m 10,3 km/h (2 Bft)
06.01.2014 17:14 13,5 C 11,1 C 82 % 1004,1 hPa 0,0 l/m 0 min 0 min 0,0 UV-I 0 W/m 23,2 km/h (4 Bft)
06.01.2014 17:16 13,5 C 10,6 C 83 % 1004,2 hPa 0,0 l/m 0 min 2 min 0,0 UV-I 0 W/m 10,3 km/h (2 Bft)
06.01.2014 17:18 13,4 C 10,6 C 83 % 1004,4 hPa 0,0 l/m 0 min 2 min 0,0 UV-I 0 W/m 28,3 km/h (4 Bft)
06.01.2014 17:20 13,4 C 10,0 C 84 % 1004,3 hPa 0,0 l/m 0 min 2 min 0,0 UV-I 0 W/m 7,7 km/h (2 Bft)
06.01.2014 17:22 13,4 C 10,0 C 84 % 1004,1 hPa 0,0 l/m 0 min 2 min 0,0 UV-I 0 W/m 7,7 km/h (2 Bft)
06.01.2014 17:24 13,4 C 10,0 C 84 % 1004,0 hPa 0,0 l/m 0 min 0 min 0,0 UV-I 0 W/m 12,9 km/h (3 Bft)
06.01.2014 17:26 13,3 C 10,0 C 84 % 1003,9 hPa 0,0 l/m 0 min 0 min 0,0 UV-I 0 W/m 10,3 km/h (2 Bft)
06.01.2014 17:28 13,3 C 10,0 C 84 % 1003,8 hPa 0,0 l/m 0 min 0 min 0,0 UV-I 0 W/m 15,4 km/h (3 Bft)
06.01.2014 17:30 13,3 C 10,0 C 84 % 1003,9 hPa 0,0 l/m 0 min 0 min 0,0 UV-I 0 W/m 12,9 km/h (3 Bft)
06.01.2014 17:32 13,2 C 10,0 C 85 % 1003,9 hPa 0,0 l/m 0 min 0 min 0,0 UV-I 0 W/m 15,4 km/h (3 Bft)
06.01.2014 17:34 13,2 C 10,0 C 85 % 1004,0 hPa 0,0 l/m 0 min 0 min 0,0 UV-I 0 W/m 7,7 km/h (2 Bft)
06.01.2014 17:36 13,2 C 10,0 C 85 % 1004,0 hPa 0,0 l/m 0 min 0 min 0,0 UV-I 0 W/m 5,1 km/h (1 Bft)
06.01.2014 17:38 13,2 C 10,0 C 85 % 1004,1 hPa 0,0 l/m 0 min 0 min 0,0 UV-I 0 W/m 15,4 km/h (3 Bft)
06.01.2014 17:40 13,1 C 10,6 C 85 % 1003,9 hPa 0,0 l/m 0 min 0 min 0,0 UV-I 0 W/m 20,6 km/h (4 Bft)
06.01.2014 17:42 13,1 C 10,6 C 85 % 1003,9 hPa 0,0 l/m 0 min 0 min 0,0 UV-I 0 W/m 23,2 km/h (4 Bft)
06.01.2014 17:44 13,1 C 10,6 C 85 % 1003,8 hPa 0,0 l/m 0 min 0 min 0,0 UV-I 0 W/m 12,9 km/h (3 Bft)
06.01.2014 17:46 13,1 C 10,6 C 85 % 1003,8 hPa 0,0 l/m 0 min 0 min 0,0 UV-I 0 W/m 2,6 km/h (1 Bft)
06.01.2014 17:48 13,0 C 10,6 C 85 % 1003,9 hPa 0,0 l/m 0 min 0 min 0,0 UV-I 0 W/m 10,3 km/h (2 Bft)
06.01.2014 17:50 13,0 C 10,6 C 85 % 1003,9 hPa 0,0 l/m 0 min 0 min 0,0 UV-I 0 W/m 2,6 km/h (1 Bft)
06.01.2014 17:52 13,0 C 10,6 C 85 % 1003,9 hPa 0,0 l/m 0 min 0 min 0,0 UV-I 0 W/m 28,3 km/h (4 Bft)
06.01.2014 17:54 13,0 C 10,6 C 85 % 1003,8 hPa 0,0 l/m 0 min 0 min 0,0 UV-I 0 W/m 25,7 km/h (4 Bft)
06.01.2014 17:56 13,0 C 10,6 C 85 % 1003,9 hPa 0,0 l/m 0 min 0 min 0,0 UV-I 0 W/m 18,0 km/h (3 Bft)
06.01.2014 17:58 13,0 C 10,6 C 85 % 1003,9 hPa 0,0 l/m 0 min 0 min 0,0 UV-I 0 W/m 20,6 km/h (4 Bft)
06.01.2014 18:00 13,0 C 10,6 C 85 % 1003,9 hPa 0,0 l/m 0 min 0 min 0,0 UV-I 0 W/m 23,2 km/h (4 Bft)
06.01.2014 18:02 13,0 C 11,1 C 85 % 1003,8 hPa 0,0 l/m 0 min 0 min 0,0 UV-I 0 W/m 18,0 km/h (3 Bft)
06.01.2014 18:04 13,0 C 11,1 C 85 % 1003,9 hPa 0,0 l/m 0 min 0 min 0,0 UV-I 0 W/m 12,9 km/h (3 Bft)
06.01.2014 18:06 13,0 C 11,1 C 85 % 1003,9 hPa 0,0 l/m 0 min 0 min 0,0 UV-I 0 W/m 25,7 km/h (4 Bft)
06.01.2014 18:08 13,0 C 11,1 C 85 % 1003,9 hPa 0,0 l/m 0 min 0 min 0,0 UV-I 0 W/m 15,4 km/h (3 Bft)
06.01.2014 18:10 13,0 C 11,1 C 85 % 1003,8 hPa 0,0 l/m 0 min 0 min 0,0 UV-I 0 W/m 25,7 km/h (4 Bft)
06.01.2014 18:12 13,0 C 11,1 C 85 % 1003,8 hPa 0,0 l/m 0 min 0 min 0,0 UV-I 0 W/m 12,9 km/h (3 Bft)
06.01.2014 18:14 13,1 C 11,1 C 85 % 1003,7 hPa 0,0 l/m 0 min 0 min 0,0 UV-I 0 W/m 15,4 km/h (3 Bft)
06.01.2014 18:16 13,1 C 11,1 C 85 % 1003,7 hPa 0,0 l/m 0 min 0 min 0,0 UV-I 0 W/m 18,0 km/h (3 Bft)
06.01.2014 18:18 13,0 C 11,1 C 85 % 1003,7 hPa 0,0 l/m 0 min 0 min 0,0 UV-I 0 W/m 18,0 km/h (3 Bft)
06.01.2014 18:20 13,1 C 11,1 C 84 % 1003,8 hPa 0,0 l/m 0 min 0 min 0,0 UV-I 0 W/m 36,0 km/h (5 Bft)
06.01.2014 18:22 13,1 C 11,1 C 84 % 1003,9 hPa 0,0 l/m 0 min 0 min 0,0 UV-I 0 W/m 23,2 km/h (4 Bft)
06.01.2014 18:24 13,1 C 11,1 C 84 % 1003,8 hPa 0,0 l/m 0 min 0 min 0,0 UV-I 0 W/m 30,9 km/h (5 Bft)
06.01.2014 18:26 13,1 C 11,1 C 84 % 1003,8 hPa 0,0 l/m 0 min 0 min 0,0 UV-I 0 W/m 25,7 km/h (4 Bft)
06.01.2014 18:28 13,1 C 11,1 C 84 % 1003,8 hPa 0,0 l/m 0 min 0 min 0,0 UV-I 0 W/m 23,2 km/h (4 Bft)
06.01.2014 18:30 13,1 C 11,1 C 84 % 1003,8 hPa 0,0 l/m 0 min 0 min 0,0 UV-I 0 W/m 10,3 km/h (2 Bft)
06.01.2014 18:32 13,1 C 11,1 C 84 % 1003,7 hPa 0,0 l/m 0 min 0 min 0,0 UV-I 0 W/m 18,0 km/h (3 Bft)
06.01.2014 18:34 13,1 C 11,1 C 84 % 1003,6 hPa 0,0 l/m 0 min 0 min 0,0 UV-I 0 W/m 28,3 km/h (4 Bft)
06.01.2014 18:36 13,1 C 11,1 C 84 % 1003,7 hPa 0,0 l/m 0 min 0 min 0,0 UV-I 0 W/m 18,0 km/h (3 Bft)
06.01.2014 18:38 13,1 C 10,6 C 84 % 1003,7 hPa 0,0 l/m 0 min 2 min 0,0 UV-I 0 W/m 33,5 km/h (5 Bft)
06.01.2014 18:40 13,1 C 10,6 C 85 % 1003,6 hPa 0,0 l/m 0 min 2 min 0,0 UV-I 0 W/m 33,5 km/h (5 Bft)
06.01.2014 18:42 13,1 C 10,0 C 85 % 1003,5 hPa 0,0 l/m 0 min 2 min 0,0 UV-I 0 W/m 7,7 km/h (2 Bft)
06.01.2014 18:44 13,0 C 10,0 C 85 % 1003,7 hPa 0,0 l/m 0 min 2 min 0,0 UV-I 0 W/m 25,7 km/h (4 Bft)
06.01.2014 18:46 13,0 C 10,0 C 85 % 1003,5 hPa 0,0 l/m 0 min 2 min 0,0 UV-I 0 W/m 18,0 km/h (3 Bft)
06.01.2014 18:48 12,9 C 10,0 C 85 % 1003,6 hPa 0,0 l/m 0 min 2 min 0,0 UV-I 0 W/m 23,2 km/h (4 Bft)
06.01.2014 18:50 12,9 C 10,0 C 85 % 1003,7 hPa 0,0 l/m 0 min 2 min 0,0 UV-I 0 W/m 10,3 km/h (2 Bft)
06.01.2014 18:52 12,9 C 10,0 C 85 % 1003,7 hPa 0,0 l/m 0 min 2 min 0,0 UV-I 0 W/m 23,2 km/h (4 Bft)
06.01.2014 18:54 12,8 C 10,0 C 86 % 1003,8 hPa 0,0 l/m 0 min 2 min 0,0 UV-I 0 W/m 20,6 km/h (4 Bft)
06.01.2014 18:56 12,8 C 10,0 C 86 % 1003,7 hPa 0,0 l/m 0 min 2 min 0,0 UV-I 0 W/m 18,0 km/h (3 Bft)
06.01.2014 18:58 12,8 C 10,0 C 86 % 1003,7 hPa 0,0 l/m 0 min 2 min 0,0 UV-I 0 W/m 15,4 km/h (3 Bft)
06.01.2014 19:00 12,8 C 10,0 C 86 % 1003,6 hPa 0,0 l/m 0 min 2 min 0,0 UV-I 0 W/m 28,3 km/h (4 Bft)
06.01.2014 19:02 12,8 C 10,0 C 86 % 1003,5 hPa 0,0 l/m 0 min 2 min 0,0 UV-I 0 W/m 25,7 km/h (4 Bft)
06.01.2014 19:04 12,7 C 10,0 C 86 % 1003,6 hPa 0,0 l/m 0 min 2 min 0,0 UV-I 0 W/m 7,7 km/h (2 Bft)
06.01.2014 19:06 12,7 C 10,0 C 86 % 1003,5 hPa 0,0 l/m 0 min 0 min 0,0 UV-I 0 W/m 20,6 km/h (4 Bft)
06.01.2014 19:08 12,7 C 10,0 C 86 % 1003,3 hPa 0,0 l/m 0 min 0 min 0,0 UV-I 0 W/m 10,3 km/h (2 Bft)
06.01.2014 19:10 12,7 C 10,0 C 86 % 1003,4 hPa 0,0 l/m 0 min 0 min 0,0 UV-I 0 W/m 7,7 km/h (2 Bft)
06.01.2014 19:12 12,7 C 10,0 C 86 % 1003,5 hPa 0,0 l/m 0 min 0 min 0,0 UV-I 0 W/m 7,7 km/h (2 Bft)
06.01.2014 19:14 12,7 C 10,0 C 86 % 1003,6 hPa 0,0 l/m 0 min 2 min 0,0 UV-I 0 W/m 33,5 km/h (5 Bft)
06.01.2014 19:16 12,7 C 10,6 C 86 % 1003,6 hPa 0,0 l/m 0 min 0 min 0,0 UV-I 0 W/m 10,3 km/h (2 Bft)
06.01.2014 19:18 12,7 C 10,6 C 86 % 1003,6 hPa 0,0 l/m 0 min 0 min 0,0 UV-I 0 W/m 10,3 km/h (2 Bft)
06.01.2014 19:20 12,7 C 10,6 C 86 % 1003,6 hPa 0,0 l/m 0 min 0 min 0,0 UV-I 0 W/m 15,4 km/h (3 Bft)
06.01.2014 19:22 12,7 C 10,6 C 86 % 1003,5 hPa 0,0 l/m 0 min 0 min 0,0 UV-I 0 W/m 18,0 km/h (3 Bft)
06.01.2014 19:24 12,6 C 10,6 C 86 % 1003,5 hPa 0,0 l/m 0 min 0 min 0,0 UV-I 0 W/m 15,4 km/h (3 Bft)
06.01.2014 19:26 12,6 C 10,6 C 86 % 1003,6 hPa 0,0 l/m 0 min 0 min 0,0 UV-I 0 W/m 18,0 km/h (3 Bft)
06.01.2014 19:28 12,6 C 10,6 C 86 % 1003,5 hPa 0,0 l/m 0 min 0 min 0,0 UV-I 0 W/m 18,0 km/h (3 Bft)
06.01.2014 19:30 12,6 C 10,6 C 86 % 1003,3 hPa 0,0 l/m 0 min 0 min 0,0 UV-I 0 W/m 2,6 km/h (1 Bft)
06.01.2014 19:32 12,6 C 10,6 C 86 % 1003,3 hPa 0,0 l/m 0 min 0 min 0,0 UV-I 0 W/m 15,4 km/h (3 Bft)
06.01.2014 19:34 12,6 C 10,6 C 86 % 1003,3 hPa 0,0 l/m 0 min 0 min 0,0 UV-I 0 W/m 15,4 km/h (3 Bft)
06.01.2014 19:36 12,6 C 10,6 C 86 % 1003,5 hPa 0,0 l/m 0 min 0 min 0,0 UV-I 0 W/m 5,1 km/h (1 Bft)
06.01.2014 19:38 12,6 C 10,6 C 86 % 1003,6 hPa 0,0 l/m 0 min 0 min 0,0 UV-I 0 W/m 15,4 km/h (3 Bft)
06.01.2014 19:40 12,6 C 10,6 C 86 % 1003,5 hPa 0,0 l/m 0 min 0 min 0,0 UV-I 0 W/m 20,6 km/h (4 Bft)
06.01.2014 19:42 12,6 C 11,1 C 85 % 1003,6 hPa 0,0 l/m 0 min 0 min 0,0 UV-I 0 W/m 23,2 km/h (4 Bft)
06.01.2014 19:44 12,7 C 11,1 C 85 % 1003,6 hPa 0,0 l/m 0 min 0 min 0,0 UV-I 0 W/m 15,4 km/h (3 Bft)
06.01.2014 19:46 12,7 C 11,1 C 86 % 1003,8 hPa 0,0 l/m 0 min 0 min 0,0 UV-I 0 W/m 25,7 km/h (4 Bft)
06.01.2014 19:48 12,7 C 11,1 C 85 % 1003,6 hPa 0,0 l/m 0 min 0 min 0,0 UV-I 0 W/m 20,6 km/h (4 Bft)
06.01.2014 19:50 12,7 C 11,1 C 85 % 1003,5 hPa 0,0 l/m 0 min 0 min 0,0 UV-I 0 W/m 15,4 km/h (3 Bft)
06.01.2014 19:52 12,8 C 11,1 C 85 % 1003,5 hPa 0,0 l/m 0 min 0 min 0,0 UV-I 0 W/m 15,4 km/h (3 Bft)
06.01.2014 19:54 12,8 C 11,1 C 85 % 1003,7 hPa 0,0 l/m 0 min 0 min 0,0 UV-I 0 W/m 10,3 km/h (2 Bft)
06.01.2014 19:56 12,8 C 11,1 C 85 % 1003,8 hPa 0,0 l/m 0 min 0 min 0,0 UV-I 0 W/m 20,6 km/h (4 Bft)
06.01.2014 19:58 12,8 C 11,1 C 85 % 1003,8 hPa 0,0 l/m 0 min 0 min 0,0 UV-I 0 W/m 10,3 km/h (2 Bft)
06.01.2014 20:00 12,8 C 11,1 C 85 % 1003,7 hPa 0,0 l/m 0 min 0 min 0,0 UV-I 0 W/m 20,6 km/h (4 Bft)
06.01.2014 20:02 12,8 C 11,1 C 85 % 1003,6 hPa 0,0 l/m 0 min 0 min 0,0 UV-I 0 W/m 18,0 km/h (3 Bft)
06.01.2014 20:04 12,8 C 11,1 C 85 % 1003,4 hPa 0,0 l/m 0 min 0 min 0,0 UV-I 0 W/m 18,0 km/h (3 Bft)
06.01.2014 20:06 12,8 C 11,1 C 84 % 1003,6 hPa 0,0 l/m 0 min 0 min 0,0 UV-I 0 W/m 15,4 km/h (3 Bft)
06.01.2014 20:08 12,8 C 11,1 C 84 % 1003,7 hPa 0,0 l/m 0 min 0 min 0,0 UV-I 0 W/m 10,3 km/h (2 Bft)
06.01.2014 20:10 12,8 C 11,1 C 84 % 1003,8 hPa 0,0 l/m 0 min 0 min 0,0 UV-I 0 W/m 23,2 km/h (4 Bft)
06.01.2014 20:12 12,8 C 11,1 C 84 % 1003,8 hPa 0,0 l/m 0 min 0 min 0,0 UV-I 0 W/m 20,6 km/h (4 Bft)
06.01.2014 20:14 12,8 C 11,1 C 84 % 1003,8 hPa 0,0 l/m 0 min 0 min 0,0 UV-I 0 W/m 23,2 km/h (4 Bft)
06.01.2014 20:16 12,9 C 11,1 C 84 % 1003,8 hPa 0,0 l/m 0 min 0 min 0,0 UV-I 0 W/m 10,3 km/h (2 Bft)
06.01.2014 20:18 12,9 C 11,1 C 84 % 1003,7 hPa 0,0 l/m 0 min 0 min 0,0 UV-I 0 W/m 12,9 km/h (3 Bft)
06.01.2014 20:20 12,9 C 11,1 C 84 % 1003,5 hPa 0,0 l/m 0 min 0 min 0,0 UV-I 0 W/m 12,9 km/h (3 Bft)
06.01.2014 20:22 12,9 C 11,1 C 84 % 1003,8 hPa 0,0 l/m 0 min 0 min 0,0 UV-I 0 W/m 15,4 km/h (3 Bft)
06.01.2014 20:24 12,9 C 11,1 C 84 % 1003,7 hPa 0,0 l/m 0 min 0 min 0,0 UV-I 0 W/m 18,0 km/h (3 Bft)
06.01.2014 20:26 12,8 C 11,1 C 84 % 1003,8 hPa 0,0 l/m 0 min 0 min 0,0 UV-I 0 W/m 18,0 km/h (3 Bft)
06.01.2014 20:28 12,8 C 11,1 C 84 % 1003,8 hPa 0,0 l/m 0 min 0 min 0,0 UV-I 0 W/m 12,9 km/h (3 Bft)
06.01.2014 20:30 12,8 C 11,1 C 84 % 1003,8 hPa 0,0 l/m 0 min 0 min 0,0 UV-I 0 W/m 30,9 km/h (5 Bft)
06.01.2014 20:32 12,8 C 11,1 C 84 % 1003,8 hPa 0,0 l/m 0 min 0 min 0,0 UV-I 0 W/m 15,4 km/h (3 Bft)
06.01.2014 20:34 12,8 C 11,1 C 84 % 1003,5 hPa 0,0 l/m 0 min 0 min 0,0 UV-I 0 W/m 18,0 km/h (3 Bft)
06.01.2014 20:36 12,8 C 11,1 C 84 % 1003,4 hPa 0,0 l/m 0 min 0 min 0,0 UV-I 0 W/m 12,9 km/h (3 Bft)
06.01.2014 20:38 12,8 C 11,1 C 83 % 1003,6 hPa 0,0 l/m 0 min 0 min 0,0 UV-I 0 W/m 18,0 km/h (3 Bft)
06.01.2014 20:40 12,8 C 11,1 C 83 % 1003,8 hPa 0,0 l/m 0 min 0 min 0,0 UV-I 0 W/m 18,0 km/h (3 Bft)
06.01.2014 20:42 12,8 C 11,1 C 83 % 1003,8 hPa 0,0 l/m 0 min 2 min 0,0 UV-I 0 W/m 15,4 km/h (3 Bft)
06.01.2014 20:44 12,8 C 10,6 C 83 % 1003,8 hPa 0,0 l/m 0 min 2 min 0,0 UV-I 0 W/m 7,7 km/h (2 Bft)
06.01.2014 20:46 12,8 C 10,6 C 84 % 1003,9 hPa 0,0 l/m 0 min 2 min 0,0 UV-I 0 W/m 7,7 km/h (2 Bft)
06.01.2014 20:48 12,8 C 10,6 C 84 % 1003,8 hPa 0,0 l/m 0 min 0 min 0,0 UV-I 0 W/m 20,6 km/h (4 Bft)
06.01.2014 20:50 12,7 C 10,6 C 84 % 1003,9 hPa 0,0 l/m 0 min 0 min 0,0 UV-I 0 W/m 23,2 km/h (4 Bft)
06.01.2014 20:52 12,7 C 10,6 C 84 % 1003,9 hPa 0,0 l/m 0 min 0 min 0,0 UV-I 0 W/m 10,3 km/h (2 Bft)
06.01.2014 20:54 12,7 C 10,6 C 84 % 1003,9 hPa 0,0 l/m 0 min 0 min 0,0 UV-I 0 W/m 12,9 km/h (3 Bft)
06.01.2014 20:56 12,7 C 10,6 C 84 % 1003,8 hPa 0,0 l/m 0 min 0 min 0,0 UV-I 0 W/m 12,9 km/h (3 Bft)
06.01.2014 20:58 12,7 C 10,6 C 84 % 1003,8 hPa 0,0 l/m 0 min 0 min 0,0 UV-I 0 W/m 10,3 km/h (2 Bft)
06.01.2014 21:00 12,7 C 10,6 C 84 % 1003,8 hPa 0,0 l/m 0 min 2 min 0,0 UV-I 0 W/m 28,3 km/h (4 Bft)
06.01.2014 21:02 12,6 C 10,6 C 84 % 1003,8 hPa 0,0 l/m 0 min 2 min 0,0 UV-I 0 W/m 12,9 km/h (3 Bft)
06.01.2014 21:04 12,6 C 10,6 C 84 % 1003,6 hPa 0,0 l/m 0 min 0 min 0,0 UV-I 0 W/m 2,6 km/h (1 Bft)
06.01.2014 21:06 12,6 C 10,6 C 84 % 1003,6 hPa 0,0 l/m 0 min 2 min 0,0 UV-I 0 W/m 15,4 km/h (3 Bft)
06.01.2014 21:08 12,6 C 10,6 C 84 % 1003,7 hPa 0,0 l/m 0 min 2 min 0,0 UV-I 0 W/m 20,6 km/h (4 Bft)
06.01.2014 21:10 12,6 C 10,6 C 84 % 1003,6 hPa 0,0 l/m 0 min 0 min 0,0 UV-I 0 W/m 12,9 km/h (3 Bft)
06.01.2014 21:12 12,6 C 10,6 C 84 % 1003,6 hPa 0,0 l/m 0 min 0 min 0,0 UV-I 0 W/m 20,6 km/h (4 Bft)
06.01.2014 21:14 12,6 C 10,6 C 84 % 1003,6 hPa 0,0 l/m 0 min 0 min 0,0 UV-I 0 W/m 15,4 km/h (3 Bft)
06.01.2014 21:16 12,6 C 10,6 C 84 % 1003,6 hPa 0,0 l/m 0 min 0 min 0,0 UV-I 0 W/m 15,4 km/h (3 Bft)
06.01.2014 21:18 12,6 C 10,6 C 84 % 1003,6 hPa 0,0 l/m 0 min 0 min 0,0 UV-I 0 W/m 23,2 km/h (4 Bft)
06.01.2014 21:20 12,6 C 10,6 C 84 % 1003,6 hPa 0,0 l/m 0 min 0 min 0,0 UV-I 0 W/m 12,9 km/h (3 Bft)
06.01.2014 21:22 12,6 C 10,6 C 84 % 1003,7 hPa 0,0 l/m 0 min 0 min 0,0 UV-I 0 W/m 20,6 km/h (4 Bft)
06.01.2014 21:24 12,6 C 10,6 C 84 % 1003,6 hPa 0,0 l/m 0 min 0 min 0,0 UV-I 0 W/m 15,4 km/h (3 Bft)
06.01.2014 21:26 12,7 C 11,1 C 84 % 1003,5 hPa 0,0 l/m 0 min 0 min 0,0 UV-I 0 W/m 23,2 km/h (4 Bft)
06.01.2014 21:28 12,7 C 11,1 C 84 % 1003,7 hPa 0,2 l/m 0 min 0 min 0,0 UV-I 0 W/m 20,6 km/h (4 Bft)
06.01.2014 21:30 12,7 C 11,1 C 84 % 1003,7 hPa 0,0 l/m 0 min 0 min 0,0 UV-I 0 W/m 23,2 km/h (4 Bft)
06.01.2014 21:32 12,8 C 11,1 C 84 % 1003,6 hPa 0,0 l/m 0 min 0 min 0,0 UV-I 0 W/m 23,2 km/h (4 Bft)
06.01.2014 21:34 12,8 C 11,1 C 84 % 1003,9 hPa 0,0 l/m 0 min 0 min 0,0 UV-I 0 W/m 23,2 km/h (4 Bft)
06.01.2014 21:36 12,8 C 11,1 C 84 % 1003,8 hPa 0,0 l/m 0 min 0 min 0,0 UV-I 0 W/m 15,4 km/h (3 Bft)
06.01.2014 21:38 12,8 C 11,1 C 84 % 1003,8 hPa 0,0 l/m 0 min 0 min 0,0 UV-I 0 W/m 23,2 km/h (4 Bft)
06.01.2014 21:40 12,9 C 11,1 C 84 % 1003,8 hPa 0,0 l/m 0 min 0 min 0,0 UV-I 0 W/m 18,0 km/h (3 Bft)
06.01.2014 21:42 12,9 C 11,1 C 84 % 1003,7 hPa 0,0 l/m 0 min 0 min 0,0 UV-I 0 W/m 20,6 km/h (4 Bft)
06.01.2014 21:44 12,9 C 11,1 C 84 % 1003,7 hPa 0,0 l/m 0 min 0 min 0,0 UV-I 0 W/m 23,2 km/h (4 Bft)
06.01.2014 21:46 12,9 C 11,1 C 83 % 1003,7 hPa 0,0 l/m 0 min 0 min 0,0 UV-I 0 W/m 28,3 km/h (4 Bft)
06.01.2014 21:48 12,9 C 11,1 C 83 % 1003,9 hPa 0,0 l/m 0 min 0 min 0,0 UV-I 0 W/m 15,4 km/h (3 Bft)
06.01.2014 21:50 12,9 C 11,1 C 83 % 1003,9 hPa 0,0 l/m 0 min 0 min 0,0 UV-I 0 W/m 30,9 km/h (5 Bft)
06.01.2014 21:52 12,9 C 11,1 C 83 % 1003,9 hPa 0,0 l/m 0 min 0 min 0,0 UV-I 0 W/m 18,0 km/h (3 Bft)
06.01.2014 21:54 13,0 C 11,1 C 83 % 1003,8 hPa 0,0 l/m 0 min 0 min 0,0 UV-I 0 W/m 25,7 km/h (4 Bft)
06.01.2014 21:56 13,0 C 11,1 C 83 % 1003,8 hPa 0,0 l/m 0 min 0 min 0,0 UV-I 0 W/m 38,6 km/h (5 Bft)
06.01.2014 21:58 13,0 C 11,1 C 83 % 1003,9 hPa 0,0 l/m 0 min 0 min 0,0 UV-I 0 W/m 20,6 km/h (4 Bft)
06.01.2014 22:00 13,0 C 11,1 C 83 % 1003,9 hPa 0,0 l/m 0 min 0 min 0,0 UV-I 0 W/m 20,6 km/h (4 Bft)
06.01.2014 22:02 13,0 C 11,1 C 83 % 1003,7 hPa 0,0 l/m 0 min 0 min 0,0 UV-I 0 W/m 18,0 km/h (3 Bft)
06.01.2014 22:04 13,0 C 11,1 C 83 % 1004,0 hPa 0,0 l/m 0 min 0 min 0,0 UV-I 0 W/m 23,2 km/h (4 Bft)
06.01.2014 22:06 13,0 C 11,1 C 83 % 1003,9 hPa 0,0 l/m 0 min 0 min 0,0 UV-I 0 W/m 23,2 km/h (4 Bft)
06.01.2014 22:08 13,0 C 11,1 C 83 % 1003,9 hPa 0,0 l/m 0 min 0 min 0,0 UV-I 0 W/m 23,2 km/h (4 Bft)
06.01.2014 22:10 13,0 C 11,1 C 83 % 1004,0 hPa 0,0 l/m 0 min 0 min 0,0 UV-I 0 W/m 30,9 km/h (5 Bft)
06.01.2014 22:12 13,0 C 11,1 C 83 % 1004,1 hPa 0,0 l/m 0 min 0 min 0,0 UV-I 0 W/m 23,2 km/h (4 Bft)
06.01.2014 22:14 13,1 C 11,1 C 83 % 1004,1 hPa 0,0 l/m 0 min 0 min 0,0 UV-I 0 W/m 28,3 km/h (4 Bft)
06.01.2014 22:16 13,1 C 11,1 C 83 % 1004,3 hPa 0,0 l/m 0 min 0 min 0,0 UV-I 0 W/m 20,6 km/h (4 Bft)
06.01.2014 22:18 13,1 C 11,1 C 83 % 1004,2 hPa 0,0 l/m 0 min 0 min 0,0 UV-I 0 W/m 20,6 km/h (4 Bft)
06.01.2014 22:20 13,1 C 11,7 C 83 % 1004,2 hPa 0,0 l/m 0 min 0 min 0,0 UV-I 0 W/m 18,0 km/h (3 Bft)
06.01.2014 22:22 13,1 C 11,1 C 83 % 1004,5 hPa 0,0 l/m 0 min 0 min 0,0 UV-I 0 W/m 20,6 km/h (4 Bft)
06.01.2014 22:24 13,1 C 11,1 C 83 % 1004,7 hPa 0,0 l/m 0 min 2 min 0,0 UV-I 0 W/m 12,9 km/h (3 Bft)
06.01.2014 22:26 13,1 C 11,1 C 83 % 1004,7 hPa 0,0 l/m 0 min 2 min 0,0 UV-I 0 W/m 20,6 km/h (4 Bft)
06.01.2014 22:28 13,1 C 11,1 C 83 % 1004,7 hPa 0,0 l/m 0 min 2 min 0,0 UV-I 0 W/m 18,0 km/h (3 Bft)
06.01.2014 22:30 13,1 C 11,1 C 83 % 1004,7 hPa 0,0 l/m 0 min 0 min 0,0 UV-I 0 W/m 12,9 km/h (3 Bft)
06.01.2014 22:32 13,1 C 11,1 C 83 % 1004,8 hPa 0,0 l/m 0 min 0 min 0,0 UV-I 0 W/m 15,4 km/h (3 Bft)
06.01.2014 22:34 13,1 C 11,1 C 83 % 1004,6 hPa 0,0 l/m 0 min 0 min 0,0 UV-I 0 W/m 5,1 km/h (1 Bft)
06.01.2014 22:36 13,1 C 11,1 C 83 % 1004,6 hPa 0,0 l/m 0 min 0 min 0,0 UV-I 0 W/m 10,3 km/h (2 Bft)
06.01.2014 22:38 13,1 C 11,1 C 83 % 1004,7 hPa 0,0 l/m 0 min 0 min 0,0 UV-I 0 W/m 7,7 km/h (2 Bft)
06.01.2014 22:40 13,1 C 11,1 C 83 % 1004,6 hPa 0,0 l/m 0 min 0 min 0,0 UV-I 0 W/m 7,7 km/h (2 Bft)
06.01.2014 22:42 13,1 C 11,1 C 83 % 1004,7 hPa 0,0 l/m 0 min 0 min 0,0 UV-I 0 W/m 23,2 km/h (4 Bft)
06.01.2014 22:44 13,0 C 11,1 C 83 % 1004,6 hPa 0,0 l/m 0 min 0 min 0,0 UV-I 0 W/m 15,4 km/h (3 Bft)
06.01.2014 22:46 13,0 C 11,1 C 83 % 1004,5 hPa 0,0 l/m 0 min 0 min 0,0 UV-I 0 W/m 18,0 km/h (3 Bft)
06.01.2014 22:48 13,0 C 11,1 C 83 % 1004,5 hPa 0,0 l/m 0 min 0 min 0,0 UV-I 0 W/m 15,4 km/h (3 Bft)
06.01.2014 22:50 13,0 C 11,1 C 83 % 1004,5 hPa 0,0 l/m 0 min 0 min 0,0 UV-I 0 W/m 7,7 km/h (2 Bft)
06.01.2014 22:52 13,0 C 11,1 C 83 % 1004,6 hPa 0,0 l/m 0 min 0 min 0,0 UV-I 0 W/m 2,6 km/h (1 Bft)
06.01.2014 22:54 13,0 C 11,1 C 83 % 1004,8 hPa 0,0 l/m 0 min 2 min 0,0 UV-I 0 W/m 12,9 km/h (3 Bft)
06.01.2014 22:56 12,9 C 10,6 C 83 % 1005,0 hPa 0,0 l/m 0 min 2 min 0,0 UV-I 0 W/m 20,6 km/h (4 Bft)
06.01.2014 22:58 12,8 C 10,0 C 83 % 1005,0 hPa 0,0 l/m 0 min 2 min 0,0 UV-I 0 W/m 20,6 km/h (4 Bft)
06.01.2014 23:00 12,8 C 9,4 C 83 % 1005,0 hPa 0,0 l/m 0 min 2 min 0,0 UV-I 0 W/m 15,4 km/h (3 Bft)
06.01.2014 23:02 12,7 C 8,9 C 83 % 1005,4 hPa 0,2 l/m 0 min 2 min 0,0 UV-I 0 W/m 20,6 km/h (4 Bft)
06.01.2014 23:04 12,5 C 8,9 C 83 % 1005,5 hPa 1,2 l/m 0 min 2 min 0,0 UV-I 0 W/m 23,2 km/h (4 Bft)
06.01.2014 23:06 12,3 C 8,9 C 84 % 1005,5 hPa 1,2 l/m 0 min 2 min 0,0 UV-I 0 W/m 20,6 km/h (4 Bft)
06.01.2014 23:08 12,1 C 8,9 C 85 % 1005,4 hPa 0,8 l/m 0 min 2 min 0,0 UV-I 0 W/m 28,3 km/h (4 Bft)
06.01.2014 23:10 11,9 C 8,9 C 86 % 1005,5 hPa 0,4 l/m 0 min 2 min 0,0 UV-I 0 W/m 23,2 km/h (4 Bft)
06.01.2014 23:12 11,8 C 8,9 C 87 % 1005,2 hPa 0,2 l/m 0 min 2 min 0,0 UV-I 0 W/m 18,0 km/h (3 Bft)
06.01.2014 23:14 11,7 C 8,9 C 88 % 1005,3 hPa 0,6 l/m 0 min 2 min 0,0 UV-I 0 W/m 18,0 km/h (3 Bft)
06.01.2014 23:16 11,6 C 8,9 C 89 % 1005,0 hPa 0,0 l/m 0 min 2 min 0,0 UV-I 0 W/m 15,4 km/h (3 Bft)
06.01.2014 23:18 11,5 C 8,9 C 89 % 1004,7 hPa 0,4 l/m 0 min 2 min 0,0 UV-I 0 W/m 7,7 km/h (2 Bft)
06.01.2014 23:20 11,4 C 8,9 C 90 % 1005,1 hPa 0,2 l/m 0 min 2 min 0,0 UV-I 0 W/m 18,0 km/h (3 Bft)
06.01.2014 23:22 11,4 C 8,9 C 90 % 1005,7 hPa 0,0 l/m 0 min 2 min 0,0 UV-I 0 W/m 20,6 km/h (4 Bft)
06.01.2014 23:24 11,4 C 8,9 C 90 % 1005,6 hPa 0,0 l/m 0 min 2 min 0,0 UV-I 0 W/m 15,4 km/h (3 Bft)
06.01.2014 23:26 11,3 C 8,9 C 91 % 1005,4 hPa 0,0 l/m 0 min 2 min 0,0 UV-I 0 W/m 12,9 km/h (3 Bft)
06.01.2014 23:28 11,3 C 8,9 C 91 % 1005,3 hPa 0,0 l/m 0 min 2 min 0,0 UV-I 0 W/m 18,0 km/h (3 Bft)
06.01.2014 23:30 11,3 C 8,9 C 91 % 1005,4 hPa 0,2 l/m 0 min 2 min 0,0 UV-I 0 W/m 23,2 km/h (4 Bft)
06.01.2014 23:32 11,2 C 8,9 C 91 % 1005,5 hPa 0,0 l/m 0 min 2 min 0,0 UV-I 0 W/m 41,2 km/h (6 Bft)
06.01.2014 23:34 11,0 C 7,8 C 90 % 1005,4 hPa 0,2 l/m 0 min 2 min 0,0 UV-I 0 W/m 25,7 km/h (4 Bft)
06.01.2014 23:36 10,9 C 7,8 C 90 % 1005,3 hPa 0,0 l/m 0 min 2 min 0,0 UV-I 0 W/m 20,6 km/h (4 Bft)
06.01.2014 23:38 10,8 C 7,8 C 89 % 1005,6 hPa 0,0 l/m 0 min 2 min 0,0 UV-I 0 W/m 25,7 km/h (4 Bft)
06.01.2014 23:40 10,7 C 7,8 C 89 % 1005,6 hPa 0,2 l/m 0 min 2 min 0,0 UV-I 0 W/m 18,0 km/h (3 Bft)
06.01.2014 23:42 10,6 C 7,8 C 89 % 1005,6 hPa 0,0 l/m 0 min 2 min 0,0 UV-I 0 W/m 18,0 km/h (3 Bft)
06.01.2014 23:44 10,6 C 7,8 C 89 % 1005,7 hPa 0,0 l/m 0 min 2 min 0,0 UV-I 0 W/m 10,3 km/h (2 Bft)
06.01.2014 23:46 10,6 C 7,8 C 89 % 1005,9 hPa 0,0 l/m 0 min 0 min 0,0 UV-I 0 W/m 18,0 km/h (3 Bft)
06.01.2014 23:48 10,6 C 8,3 C 89 % 1005,8 hPa 0,0 l/m 0 min 0 min 0,0 UV-I 0 W/m 12,9 km/h (3 Bft)
06.01.2014 23:50 10,6 C 8,3 C 89 % 1005,8 hPa 0,0 l/m 0 min 0 min 0,0 UV-I 0 W/m 5,1 km/h (1 Bft)
06.01.2014 23:52 10,6 C 8,3 C 90 % 1006,0 hPa 0,0 l/m 0 min 0 min 0,0 UV-I 0 W/m 15,4 km/h (3 Bft)
06.01.2014 23:54 10,6 C 8,3 C 90 % 1005,9 hPa 0,0 l/m 0 min 0 min 0,0 UV-I 0 W/m 15,4 km/h (3 Bft)
06.01.2014 23:56 10,6 C 8,3 C 90 % 1005,9 hPa 0,0 l/m 0 min 0 min 0,0 UV-I 0 W/m 10,3 km/h (2 Bft)
06.01.2014 23:58 10,6 C 8,3 C 90 % 1006,0 hPa 0,0 l/m 0 min 0 min 0,0 UV-I 0 W/m 0,0 km/h (0 Bft)
_ Min-Zeit 00:00 00:00 13:56 19:08 - - - - - 06:44
Minimum _ 4,1 C 2,8 C 80 % 1003,3 hPa - - - - - 0,0 km/h (0 Bft)
_ Max-Zeit 13:34 14:36 09:46 00:02 23:04 13:16 07:26 00:00 13:30 16:54
Maximum _ 14,2 C 12,8 C 95 % 1007,2 hPa 1,2 l/m 2 min 2 min 0,0 UV-I 343 W/m 43,8 km/h
S-SO (6 Bft)
Durchschnitt _ 10,7 C 8,8 C 86 % 1004,6 hPa #6,4 l/m #16 min. #2:56 h 0,0 UV-I 48 W/m 17,2 km/h (3 Bft)
© 2014 W. Hausmann